Wetterdaten: Samstag, 21.11.2020
Datum Zeit Temp. Aussen Temp. o. S. Temp +5cm Feuchte Auss Luftdruck Regen Sonnenschein Regendauer Solar Windben Empfang
21.11.2020 00:00 2,4 C 1,7 C 1,1 C 89 % 1034,9 hPa 0,0 l/m 0 min 0 min 0 W/m 22,5 km/h (4 Bft) 97,83 %
21.11.2020 00:02 2,4 C 2,2 C 1,1 C 89 % 1034,9 hPa 0,0 l/m 0 min 0 min 0 W/m 29,0 km/h (5 Bft) 97,37 %
21.11.2020 00:04 2,4 C 2,2 C 1,1 C 89 % 1034,9 hPa 0,0 l/m 0 min 0 min 0 W/m 19,3 km/h (3 Bft) 97,87 %
21.11.2020 00:08 2,4 C 1,7 C 1,1 C 89 % 1034,7 hPa 0,0 l/m 0 min 0 min 0 W/m 12,9 km/h (3 Bft) 97,87 %
21.11.2020 00:10 2,4 C 1,7 C 1,1 C 89 % 1034,8 hPa 0,0 l/m 0 min 0 min 0 W/m 12,9 km/h (3 Bft) 97,87 %
21.11.2020 00:12 2,4 C 1,7 C 1,1 C 89 % 1034,8 hPa 0,0 l/m 0 min 0 min 0 W/m 3,2 km/h (1 Bft) 97,83 %
21.11.2020 00:14 2,4 C 1,7 C 1,1 C 89 % 1034,8 hPa 0,0 l/m 0 min 0 min 0 W/m 6,4 km/h (2 Bft) 100,00 %
21.11.2020 00:16 2,4 C 1,7 C 1,1 C 89 % 1034,8 hPa 0,0 l/m 0 min 0 min 0 W/m 16,1 km/h (3 Bft) 70,21 %
21.11.2020 00:18 2,4 C 1,7 C 1,1 C 89 % 1034,8 hPa 0,0 l/m 0 min 0 min 0 W/m 16,1 km/h (3 Bft) 87,76 %
21.11.2020 00:20 2,4 C 1,7 C 1,1 C 89 % 1034,8 hPa 0,0 l/m 0 min 0 min 0 W/m 12,9 km/h (3 Bft) 100,00 %
21.11.2020 00:22 2,3 C 1,7 C 1,1 C 89 % 1034,7 hPa 0,0 l/m 0 min 0 min 0 W/m 6,4 km/h (2 Bft) 100,00 %
21.11.2020 00:24 2,3 C 1,7 C 1,1 C 89 % 1034,7 hPa 0,0 l/m 0 min 0 min 0 W/m 3,2 km/h (1 Bft) 100,00 %
21.11.2020 00:26 2,3 C 1,7 C 0,6 C 89 % 1034,7 hPa 0,0 l/m 0 min 0 min 0 W/m 6,4 km/h (2 Bft) 100,00 %
21.11.2020 00:28 2,3 C 1,7 C 0,6 C 89 % 1034,6 hPa 0,0 l/m 0 min 0 min 0 W/m 12,9 km/h (3 Bft) 100,00 %
21.11.2020 00:30 2,3 C 1,7 C 0,6 C 89 % 1034,6 hPa 0,0 l/m 0 min 0 min 0 W/m 12,9 km/h (3 Bft) 100,00 %
21.11.2020 00:32 2,3 C 1,7 C 0,6 C 89 % 1034,6 hPa 0,0 l/m 0 min 0 min 0 W/m 3,2 km/h (1 Bft) 100,00 %
21.11.2020 00:34 2,3 C 1,7 C 0,6 C 89 % 1034,6 hPa 0,0 l/m 0 min 0 min 0 W/m 0,0 km/h (0 Bft) 100,00 %
21.11.2020 00:36 2,3 C 1,7 C 0,6 C 89 % 1034,6 hPa 0,0 l/m 0 min 0 min 0 W/m 3,2 km/h (1 Bft) 100,00 %
21.11.2020 00:38 2,3 C 1,7 C 0,6 C 89 % 1034,6 hPa 0,0 l/m 0 min 0 min 0 W/m 12,9 km/h (3 Bft) 97,87 %
21.11.2020 00:40 2,2 C 1,7 C 0,6 C 89 % 1034,6 hPa 0,0 l/m 0 min 0 min 0 W/m 6,4 km/h (2 Bft) 100,00 %
21.11.2020 00:42 2,2 C 1,7 C 0,6 C 89 % 1034,6 hPa 0,0 l/m 0 min 0 min 0 W/m 6,4 km/h (2 Bft) 100,00 %
21.11.2020 00:44 2,2 C 1,7 C 0,6 C 89 % 1034,6 hPa 0,0 l/m 0 min 0 min 0 W/m 6,4 km/h (2 Bft) 100,00 %
21.11.2020 00:46 2,2 C 1,7 C 0,6 C 89 % 1034,5 hPa 0,0 l/m 0 min 0 min 0 W/m 16,1 km/h (3 Bft) 100,00 %
21.11.2020 00:48 2,1 C 1,7 C 0,6 C 89 % 1034,6 hPa 0,0 l/m 0 min 0 min 0 W/m 6,4 km/h (2 Bft) 100,00 %
21.11.2020 00:50 2,1 C 1,7 C 0,6 C 89 % 1034,5 hPa 0,0 l/m 0 min 0 min 0 W/m 6,4 km/h (2 Bft) 97,87 %
21.11.2020 00:52 2,1 C 1,7 C 0,6 C 89 % 1034,5 hPa 0,0 l/m 0 min 0 min 0 W/m 3,2 km/h (1 Bft) 95,74 %
21.11.2020 00:54 2,1 C 1,7 C 0,6 C 89 % 1034,5 hPa 0,0 l/m 0 min 0 min 0 W/m 16,1 km/h (3 Bft) 97,87 %
21.11.2020 00:56 2,1 C 1,7 C 0,6 C 89 % 1034,5 hPa 0,0 l/m 0 min 0 min 0 W/m 12,9 km/h (3 Bft) 95,74 %
21.11.2020 00:58 2,1 C 1,7 C 0,6 C 89 % 1034,4 hPa 0,0 l/m 0 min 0 min 0 W/m 6,4 km/h (2 Bft) 97,83 %
21.11.2020 01:00 2,1 C 1,7 C 0,6 C 89 % 1034,4 hPa 0,0 l/m 0 min 0 min 0 W/m 12,9 km/h (3 Bft) 97,87 %
21.11.2020 01:02 2,1 C 1,7 C 0,6 C 89 % 1034,3 hPa 0,0 l/m 0 min 0 min 0 W/m 3,2 km/h (1 Bft) 97,87 %
21.11.2020 01:04 2,1 C 1,7 C 0,6 C 89 % 1034,4 hPa 0,0 l/m 0 min 0 min 0 W/m 16,1 km/h (3 Bft) 95,74 %
21.11.2020 01:06 2,1 C 1,7 C 0,6 C 89 % 1034,3 hPa 0,0 l/m 0 min 0 min 0 W/m 12,9 km/h (3 Bft) 95,74 %
21.11.2020 01:08 2,1 C 1,7 C 0,6 C 89 % 1034,3 hPa 0,0 l/m 0 min 0 min 0 W/m 16,1 km/h (3 Bft) 95,74 %
21.11.2020 01:10 2,0 C 1,7 C 0,6 C 90 % 1034,2 hPa 0,0 l/m 0 min 0 min 0 W/m 16,1 km/h (3 Bft) 95,74 %
21.11.2020 01:12 2,0 C 1,7 C 0,6 C 90 % 1034,2 hPa 0,0 l/m 0 min 0 min 0 W/m 12,9 km/h (3 Bft) 93,48 %
21.11.2020 01:14 2,0 C 1,7 C 0,6 C 90 % 1034,2 hPa 0,0 l/m 0 min 0 min 0 W/m 3,2 km/h (1 Bft) 91,49 %
21.11.2020 01:16 2,0 C 1,7 C 0,6 C 90 % 1034,1 hPa 0,0 l/m 0 min 0 min 0 W/m 12,9 km/h (3 Bft) 95,74 %
21.11.2020 01:18 2,0 C 1,7 C 0,6 C 90 % 1034,1 hPa 0,0 l/m 0 min 0 min 0 W/m 16,1 km/h (3 Bft) 95,74 %
21.11.2020 01:20 2,0 C 1,7 C 0,6 C 90 % 1034,1 hPa 0,0 l/m 0 min 0 min 0 W/m 16,1 km/h (3 Bft) 95,74 %
21.11.2020 01:22 2,0 C 1,7 C 0,6 C 90 % 1034,0 hPa 0,0 l/m 0 min 0 min 0 W/m 12,9 km/h (3 Bft) 93,62 %
21.11.2020 01:24 2,0 C 1,7 C 0,6 C 90 % 1033,9 hPa 0,0 l/m 0 min 0 min 0 W/m 12,9 km/h (3 Bft) 93,48 %
21.11.2020 01:26 2,0 C 1,1 C 0,6 C 90 % 1033,9 hPa 0,0 l/m 0 min 0 min 0 W/m 12,9 km/h (3 Bft) 93,62 %
21.11.2020 01:28 2,0 C 1,1 C 0,6 C 90 % 1033,9 hPa 0,0 l/m 0 min 0 min 0 W/m 12,9 km/h (3 Bft) 97,83 %
21.11.2020 01:30 2,0 C 1,1 C 0,6 C 90 % 1033,9 hPa 0,0 l/m 0 min 0 min 0 W/m 12,9 km/h (3 Bft) 93,62 %
21.11.2020 01:32 2,0 C 1,1 C 0,6 C 90 % 1033,9 hPa 0,0 l/m 0 min 0 min 0 W/m 16,1 km/h (3 Bft) 95,74 %
21.11.2020 01:34 2,0 C 1,1 C 0,6 C 90 % 1033,9 hPa 0,0 l/m 0 min 0 min 0 W/m 6,4 km/h (2 Bft) 95,65 %
21.11.2020 01:36 2,0 C 1,1 C 0,6 C 90 % 1033,8 hPa 0,0 l/m 0 min 0 min 0 W/m 3,2 km/h (1 Bft) 95,74 %
21.11.2020 01:38 1,9 C 1,1 C 0,6 C 90 % 1033,8 hPa 0,0 l/m 0 min 0 min 0 W/m 6,4 km/h (2 Bft) 95,74 %
21.11.2020 01:40 1,9 C 1,1 C 0,6 C 90 % 1033,9 hPa 0,0 l/m 0 min 0 min 0 W/m 3,2 km/h (1 Bft) 95,74 %
21.11.2020 01:42 1,9 C 1,1 C 0,6 C 90 % 1033,9 hPa 0,0 l/m 0 min 0 min 0 W/m 6,4 km/h (2 Bft) 97,87 %
21.11.2020 01:44 1,9 C 1,1 C 0,6 C 90 % 1033,9 hPa 0,0 l/m 0 min 0 min 0 W/m 6,4 km/h (2 Bft) 93,62 %
21.11.2020 01:46 1,9 C 1,1 C 0,6 C 90 % 1033,8 hPa 0,0 l/m 0 min 0 min 0 W/m 16,1 km/h (3 Bft) 97,83 %
21.11.2020 01:48 1,9 C 1,1 C 0,6 C 90 % 1033,8 hPa 0,0 l/m 0 min 0 min 0 W/m 6,4 km/h (2 Bft) 95,74 %
21.11.2020 01:50 1,9 C 1,1 C 0,6 C 90 % 1033,8 hPa 0,0 l/m 0 min 0 min 0 W/m 6,4 km/h (2 Bft) 97,87 %
21.11.2020 01:52 1,9 C 1,1 C 0,6 C 90 % 1033,8 hPa 0,0 l/m 0 min 0 min 0 W/m 6,4 km/h (2 Bft) 95,74 %
21.11.2020 01:54 1,9 C 1,1 C 0,6 C 90 % 1033,7 hPa 0,0 l/m 0 min 0 min 0 W/m 12,9 km/h (3 Bft) 95,74 %
21.11.2020 01:56 1,9 C 1,1 C 0,6 C 90 % 1033,8 hPa 0,0 l/m 0 min 0 min 0 W/m 16,1 km/h (3 Bft) 97,87 %
21.11.2020 01:58 1,9 C 1,1 C 0,6 C 90 % 1033,8 hPa 0,0 l/m 0 min 0 min 0 W/m 16,1 km/h (3 Bft) 95,65 %
21.11.2020 02:00 1,9 C 1,1 C 0,6 C 90 % 1033,9 hPa 0,0 l/m 0 min 0 min 0 W/m 6,4 km/h (2 Bft) 95,74 %
21.11.2020 02:02 1,9 C 1,1 C 0,6 C 90 % 1033,8 hPa 0,0 l/m 0 min 0 min 0 W/m 12,9 km/h (3 Bft) 95,74 %
21.11.2020 02:04 1,9 C 1,1 C 0,6 C 90 % 1033,9 hPa 0,0 l/m 0 min 0 min 0 W/m 3,2 km/h (1 Bft) 95,74 %
21.11.2020 02:06 1,9 C 1,1 C 0,6 C 90 % 1033,9 hPa 0,0 l/m 0 min 0 min 0 W/m 3,2 km/h (1 Bft) 95,74 %
21.11.2020 02:08 1,9 C 1,1 C 0,6 C 90 % 1033,9 hPa 0,0 l/m 0 min 0 min 0 W/m 12,9 km/h (3 Bft) 93,62 %
21.11.2020 02:10 1,9 C 1,1 C 0,6 C 91 % 1033,8 hPa 0,0 l/m 0 min 0 min 0 W/m 6,4 km/h (2 Bft) 95,65 %
21.11.2020 02:12 1,9 C 1,1 C 0,6 C 91 % 1033,8 hPa 0,0 l/m 0 min 0 min 0 W/m 12,9 km/h (3 Bft) 95,74 %
21.11.2020 02:14 1,9 C 1,1 C 0,6 C 91 % 1033,8 hPa 0,0 l/m 0 min 0 min 0 W/m 3,2 km/h (1 Bft) 95,74 %
21.11.2020 02:16 1,9 C 1,7 C 0,6 C 91 % 1033,8 hPa 0,0 l/m 0 min 0 min 0 W/m 16,1 km/h (3 Bft) 95,74 %
21.11.2020 02:18 1,9 C 1,7 C 0,6 C 91 % 1033,9 hPa 0,0 l/m 0 min 0 min 0 W/m 6,4 km/h (2 Bft) 97,87 %
21.11.2020 02:20 1,9 C 1,7 C 0,6 C 91 % 1033,9 hPa 0,0 l/m 0 min 0 min 0 W/m 3,2 km/h (1 Bft) 97,87 %
21.11.2020 02:22 1,9 C 1,7 C 0,6 C 91 % 1033,8 hPa 0,0 l/m 0 min 0 min 0 W/m 6,4 km/h (2 Bft) 95,65 %
21.11.2020 02:24 1,9 C 1,1 C 0,6 C 91 % 1033,8 hPa 0,0 l/m 0 min 0 min 0 W/m 12,9 km/h (3 Bft) 95,74 %
21.11.2020 02:26 1,9 C 1,7 C 0,6 C 91 % 1033,8 hPa 0,0 l/m 0 min 0 min 0 W/m 12,9 km/h (3 Bft) 97,87 %
21.11.2020 02:28 1,9 C 1,7 C 0,6 C 91 % 1033,8 hPa 0,0 l/m 0 min 0 min 0 W/m 12,9 km/h (3 Bft) 97,87 %
21.11.2020 02:30 1,9 C 1,7 C 0,6 C 91 % 1033,8 hPa 0,0 l/m 0 min 0 min 0 W/m 12,9 km/h (3 Bft) 97,87 %
21.11.2020 02:32 1,9 C 1,7 C 0,6 C 91 % 1033,7 hPa 0,0 l/m 0 min 0 min 0 W/m 6,4 km/h (2 Bft) 95,65 %
21.11.2020 02:34 1,9 C 1,7 C 0,6 C 91 % 1033,6 hPa 0,0 l/m 0 min 0 min 0 W/m 3,2 km/h (1 Bft) 97,87 %
21.11.2020 02:36 1,9 C 1,7 C 0,6 C 91 % 1033,7 hPa 0,0 l/m 0 min 0 min 0 W/m 6,4 km/h (2 Bft) 93,62 %
21.11.2020 02:38 1,9 C 1,7 C 0,6 C 91 % 1033,7 hPa 0,0 l/m 0 min 0 min 0 W/m 3,2 km/h (1 Bft) 100,00 %
21.11.2020 02:40 1,9 C 1,1 C 0,6 C 91 % 1033,7 hPa 0,0 l/m 0 min 0 min 0 W/m 3,2 km/h (1 Bft) 100,00 %
21.11.2020 02:42 1,9 C 1,1 C 0,6 C 91 % 1033,6 hPa 0,0 l/m 0 min 0 min 0 W/m 0,0 km/h (0 Bft) 97,87 %
21.11.2020 02:44 1,9 C 1,1 C 0,6 C 91 % 1033,6 hPa 0,0 l/m 0 min 0 min 0 W/m 3,2 km/h (1 Bft) 100,00 %
21.11.2020 02:46 1,9 C 1,1 C 0,6 C 91 % 1033,6 hPa 0,0 l/m 0 min 0 min 0 W/m 6,4 km/h (2 Bft) 100,00 %
21.11.2020 02:48 1,9 C 1,1 C 0,6 C 91 % 1033,6 hPa 0,0 l/m 0 min 0 min 0 W/m 0,0 km/h (0 Bft) 97,87 %
21.11.2020 02:50 1,9 C 1,1 C 0,6 C 91 % 1033,6 hPa 0,0 l/m 0 min 0 min 0 W/m 0,0 km/h (0 Bft) 97,87 %
21.11.2020 02:52 1,9 C 1,1 C 0,6 C 91 % 1033,5 hPa 0,0 l/m 0 min 0 min 0 W/m 6,4 km/h (2 Bft) 100,00 %
21.11.2020 02:54 1,9 C 1,1 C 0,6 C 91 % 1033,5 hPa 0,0 l/m 0 min 0 min 0 W/m 12,9 km/h (3 Bft) 100,00 %
21.11.2020 02:56 1,9 C 1,1 C 0,6 C 91 % 1033,5 hPa 0,0 l/m 0 min 0 min 0 W/m 3,2 km/h (1 Bft) 100,00 %
21.11.2020 02:58 1,9 C 1,1 C 0,6 C 91 % 1033,4 hPa 0,0 l/m 0 min 0 min 0 W/m 0,0 km/h (0 Bft) 100,00 %
21.11.2020 03:00 1,9 C 1,1 C 0,6 C 91 % 1033,4 hPa 0,0 l/m 0 min 0 min 0 W/m 6,4 km/h (2 Bft) 100,00 %
21.11.2020 03:02 1,9 C 1,1 C 0,6 C 91 % 1033,3 hPa 0,0 l/m 0 min 0 min 0 W/m 0,0 km/h (0 Bft) 97,87 %
21.11.2020 03:04 1,9 C 1,1 C 0,6 C 91 % 1033,3 hPa 0,0 l/m 0 min 0 min 0 W/m 0,0 km/h (0 Bft) 100,00 %
21.11.2020 03:06 1,9 C 1,1 C 0,6 C 91 % 1033,2 hPa 0,0 l/m 0 min 0 min 0 W/m 16,1 km/h (3 Bft) 97,87 %
21.11.2020 03:08 1,9 C 1,1 C 0,6 C 91 % 1033,1 hPa 0,0 l/m 0 min 0 min 0 W/m 6,4 km/h (2 Bft) 100,00 %
21.11.2020 03:10 1,9 C 1,1 C 0,6 C 91 % 1033,1 hPa 0,0 l/m 0 min 0 min 0 W/m 12,9 km/h (3 Bft) 100,00 %
21.11.2020 03:12 1,8 C 1,1 C 0,6 C 91 % 1033,1 hPa 0,0 l/m 0 min 0 min 0 W/m 12,9 km/h (3 Bft) 100,00 %
21.11.2020 03:14 1,8 C 1,1 C 0,6 C 91 % 1033,1 hPa 0,0 l/m 0 min 0 min 0 W/m 6,4 km/h (2 Bft) 100,00 %
21.11.2020 03:16 1,8 C 1,1 C 0,6 C 91 % 1032,9 hPa 0,0 l/m 0 min 0 min 0 W/m 6,4 km/h (2 Bft) 100,00 %
21.11.2020 03:18 1,9 C 1,1 C 0,6 C 91 % 1032,9 hPa 0,0 l/m 0 min 0 min 0 W/m 6,4 km/h (2 Bft) 100,00 %
21.11.2020 03:20 1,9 C 1,1 C 0,6 C 91 % 1033,0 hPa 0,0 l/m 0 min 0 min 0 W/m 12,9 km/h (3 Bft) 100,00 %
21.11.2020 03:22 1,9 C 1,7 C 0,6 C 91 % 1032,9 hPa 0,0 l/m 0 min 0 min 0 W/m 16,1 km/h (3 Bft) 100,00 %
21.11.2020 03:24 1,9 C 1,7 C 0,6 C 91 % 1033,0 hPa 0,0 l/m 0 min 0 min 0 W/m 6,4 km/h (2 Bft) 100,00 %
21.11.2020 03:26 1,9 C 1,7 C 0,6 C 91 % 1033,0 hPa 0,0 l/m 0 min 0 min 0 W/m 12,9 km/h (3 Bft) 100,00 %
21.11.2020 03:28 1,9 C 1,7 C 0,6 C 91 % 1032,9 hPa 0,0 l/m 0 min 0 min 0 W/m 0,0 km/h (0 Bft) 100,00 %
21.11.2020 03:30 1,9 C 1,7 C 0,6 C 91 % 1032,9 hPa 0,0 l/m 0 min 0 min 0 W/m 12,9 km/h (3 Bft) 100,00 %
21.11.2020 03:32 1,9 C 1,1 C 0,6 C 91 % 1033,0 hPa 0,0 l/m 0 min 0 min 0 W/m 3,2 km/h (1 Bft) 100,00 %
21.11.2020 03:34 1,9 C 1,1 C 0,6 C 91 % 1032,9 hPa 0,0 l/m 0 min 0 min 0 W/m 3,2 km/h (1 Bft) 100,00 %
21.11.2020 03:36 1,9 C 1,7 C 0,6 C 91 % 1032,9 hPa 0,0 l/m 0 min 0 min 0 W/m 12,9 km/h (3 Bft) 97,87 %
21.11.2020 03:38 1,9 C 1,1 C 0,6 C 91 % 1032,9 hPa 0,0 l/m 0 min 0 min 0 W/m 3,2 km/h (1 Bft) 97,87 %
21.11.2020 03:40 1,9 C 1,7 C 0,6 C 91 % 1032,8 hPa 0,0 l/m 0 min 0 min 0 W/m 12,9 km/h (3 Bft) 97,83 %
21.11.2020 03:42 1,9 C 1,7 C 0,6 C 91 % 1032,8 hPa 0,0 l/m 0 min 0 min 0 W/m 12,9 km/h (3 Bft) 97,87 %
21.11.2020 03:44 1,9 C 1,7 C 0,6 C 91 % 1032,7 hPa 0,0 l/m 0 min 0 min 0 W/m 12,9 km/h (3 Bft) 100,00 %
21.11.2020 03:46 1,9 C 1,7 C 0,6 C 91 % 1032,7 hPa 0,0 l/m 0 min 0 min 0 W/m 6,4 km/h (2 Bft) 97,87 %
21.11.2020 03:48 1,9 C 1,1 C 0,6 C 91 % 1032,8 hPa 0,0 l/m 0 min 0 min 0 W/m 3,2 km/h (1 Bft) 95,74 %
21.11.2020 03:50 1,9 C 1,1 C 0,6 C 91 % 1032,8 hPa 0,0 l/m 0 min 0 min 0 W/m 3,2 km/h (1 Bft) 97,87 %
21.11.2020 03:52 1,9 C 1,1 C 0,6 C 91 % 1032,7 hPa 0,0 l/m 0 min 0 min 0 W/m 6,4 km/h (2 Bft) 97,83 %
21.11.2020 03:54 1,9 C 1,1 C 0,6 C 91 % 1032,6 hPa 0,0 l/m 0 min 0 min 0 W/m 12,9 km/h (3 Bft) 97,87 %
21.11.2020 03:56 1,9 C 1,1 C 0,6 C 91 % 1032,6 hPa 0,0 l/m 0 min 0 min 0 W/m 6,4 km/h (2 Bft) 97,87 %
21.11.2020 03:58 1,9 C 1,1 C 0,6 C 91 % 1032,7 hPa 0,0 l/m 0 min 0 min 0 W/m 12,9 km/h (3 Bft) 97,87 %
21.11.2020 04:00 1,9 C 1,1 C 0,6 C 91 % 1032,7 hPa 0,0 l/m 0 min 0 min 0 W/m 3,2 km/h (1 Bft) 97,87 %
21.11.2020 04:05 1,8 C 1,1 C 0,6 C 91 % 1032,6 hPa 0,0 l/m 0 min 0 min 0 W/m 3,2 km/h (1 Bft) 98,44 %
21.11.2020 04:06 1,8 C 1,1 C 0,6 C 91 % 1032,6 hPa 0,0 l/m 0 min 0 min 0 W/m 6,4 km/h (2 Bft) 95,65 %
21.11.2020 04:08 1,8 C 1,1 C 0,6 C 91 % 1032,7 hPa 0,0 l/m 0 min 0 min 0 W/m 6,4 km/h (2 Bft) 97,87 %
21.11.2020 04:10 1,8 C 1,1 C 0,6 C 91 % 1032,7 hPa 0,0 l/m 0 min 0 min 0 W/m 6,4 km/h (2 Bft) 97,87 %
21.11.2020 04:12 1,8 C 1,1 C 0,6 C 91 % 1032,6 hPa 0,0 l/m 0 min 0 min 0 W/m 6,4 km/h (2 Bft) 95,74 %
21.11.2020 04:14 1,8 C 1,1 C 0,6 C 91 % 1032,6 hPa 0,0 l/m 0 min 0 min 0 W/m 3,2 km/h (1 Bft) 95,74 %
21.11.2020 04:16 1,8 C 1,1 C 0,6 C 91 % 1032,6 hPa 0,0 l/m 0 min 0 min 0 W/m 6,4 km/h (2 Bft) 97,83 %
21.11.2020 04:18 1,8 C 1,1 C 0,6 C 91 % 1032,5 hPa 0,0 l/m 0 min 0 min 0 W/m 6,4 km/h (2 Bft) 95,74 %
21.11.2020 04:20 1,8 C 1,1 C 0,6 C 91 % 1032,4 hPa 0,0 l/m 0 min 0 min 0 W/m 3,2 km/h (1 Bft) 93,62 %
21.11.2020 04:22 1,8 C 1,1 C 0,6 C 91 % 1032,4 hPa 0,0 l/m 0 min 0 min 0 W/m 3,2 km/h (1 Bft) 93,62 %
21.11.2020 04:24 1,8 C 1,1 C 0,6 C 91 % 1032,5 hPa 0,0 l/m 0 min 0 min 0 W/m 0,0 km/h (0 Bft) 91,49 %
21.11.2020 04:26 1,8 C 1,1 C 0,6 C 91 % 1032,4 hPa 0,0 l/m 0 min 0 min 0 W/m 6,4 km/h (2 Bft) 97,83 %
21.11.2020 04:28 1,8 C 1,1 C 0,6 C 91 % 1032,4 hPa 0,0 l/m 0 min 0 min 0 W/m 12,9 km/h (3 Bft) 95,74 %
21.11.2020 04:30 1,9 C 1,1 C 0,6 C 91 % 1032,4 hPa 0,0 l/m 0 min 0 min 0 W/m 16,1 km/h (3 Bft) 95,74 %
21.11.2020 04:32 1,9 C 1,1 C 1,1 C 91 % 1032,5 hPa 0,0 l/m 0 min 0 min 0 W/m 6,4 km/h (2 Bft) 97,87 %
21.11.2020 04:34 1,9 C 1,7 C 1,1 C 92 % 1032,5 hPa 0,0 l/m 0 min 0 min 0 W/m 6,4 km/h (2 Bft) 97,87 %
21.11.2020 04:36 1,9 C 1,7 C 1,1 C 92 % 1032,5 hPa 0,0 l/m 0 min 0 min 0 W/m 6,4 km/h (2 Bft) 97,87 %
21.11.2020 04:38 1,9 C 1,7 C 1,1 C 92 % 1032,5 hPa 0,0 l/m 0 min 0 min 0 W/m 6,4 km/h (2 Bft) 95,74 %
21.11.2020 04:40 1,9 C 1,7 C 1,1 C 92 % 1032,5 hPa 0,0 l/m 0 min 0 min 0 W/m 3,2 km/h (1 Bft) 97,83 %
21.11.2020 04:42 1,9 C 1,7 C 1,1 C 92 % 1032,4 hPa 0,0 l/m 0 min 0 min 0 W/m 3,2 km/h (1 Bft) 97,87 %
21.11.2020 04:44 1,9 C 1,7 C 1,1 C 92 % 1032,4 hPa 0,0 l/m 0 min 0 min 0 W/m 12,9 km/h (3 Bft) 97,87 %
21.11.2020 04:46 1,9 C 1,7 C 1,1 C 92 % 1032,4 hPa 0,0 l/m 0 min 0 min 0 W/m 6,4 km/h (2 Bft) 97,87 %
21.11.2020 04:48 2,0 C 1,7 C 1,1 C 92 % 1032,4 hPa 0,0 l/m 0 min 0 min 0 W/m 6,4 km/h (2 Bft) 97,87 %
21.11.2020 04:50 2,0 C 1,7 C 1,1 C 92 % 1032,4 hPa 0,0 l/m 0 min 0 min 0 W/m 6,4 km/h (2 Bft) 97,87 %
21.11.2020 04:52 2,0 C 1,7 C 1,1 C 92 % 1032,4 hPa 0,0 l/m 0 min 0 min 0 W/m 3,2 km/h (1 Bft) 97,83 %
21.11.2020 04:54 2,0 C 1,7 C 1,1 C 92 % 1032,5 hPa 0,0 l/m 0 min 0 min 0 W/m 16,1 km/h (3 Bft) 97,87 %
21.11.2020 04:56 2,0 C 1,7 C 1,1 C 92 % 1032,5 hPa 0,0 l/m 0 min 0 min 0 W/m 6,4 km/h (2 Bft) 93,62 %
21.11.2020 04:58 2,0 C 1,7 C 1,1 C 92 % 1032,5 hPa 0,0 l/m 0 min 0 min 0 W/m 0,0 km/h (0 Bft) 100,00 %
21.11.2020 05:00 2,0 C 1,7 C 1,1 C 92 % 1032,6 hPa 0,0 l/m 0 min 0 min 0 W/m 12,9 km/h (3 Bft) 100,00 %
21.11.2020 05:02 2,0 C 1,7 C 1,1 C 92 % 1032,6 hPa 0,0 l/m 0 min 0 min 0 W/m 6,4 km/h (2 Bft) 100,00 %
21.11.2020 05:04 2,0 C 1,7 C 1,1 C 92 % 1032,6 hPa 0,0 l/m 0 min 0 min 0 W/m 6,4 km/h (2 Bft) 100,00 %
21.11.2020 05:06 2,0 C 1,7 C 1,1 C 92 % 1032,6 hPa 0,0 l/m 0 min 0 min 0 W/m 16,1 km/h (3 Bft) 100,00 %
21.11.2020 05:08 2,1 C 1,7 C 1,1 C 92 % 1032,6 hPa 0,0 l/m 0 min 0 min 0 W/m 12,9 km/h (3 Bft) 100,00 %
21.11.2020 05:10 2,1 C 1,7 C 1,1 C 92 % 1032,6 hPa 0,0 l/m 0 min 0 min 0 W/m 3,2 km/h (1 Bft) 100,00 %
21.11.2020 05:12 2,1 C 1,7 C 1,1 C 92 % 1032,6 hPa 0,0 l/m 0 min 0 min 0 W/m 6,4 km/h (2 Bft) 100,00 %
21.11.2020 05:14 2,1 C 1,7 C 1,1 C 92 % 1032,6 hPa 0,0 l/m 0 min 0 min 0 W/m 6,4 km/h (2 Bft) 100,00 %
21.11.2020 05:16 2,1 C 1,7 C 1,1 C 92 % 1032,6 hPa 0,0 l/m 0 min 0 min 0 W/m 12,9 km/h (3 Bft) 100,00 %
21.11.2020 05:18 2,1 C 1,7 C 1,1 C 92 % 1032,6 hPa 0,0 l/m 0 min 0 min 0 W/m 16,1 km/h (3 Bft) 100,00 %
21.11.2020 05:20 2,1 C 1,7 C 1,1 C 92 % 1032,6 hPa 0,0 l/m 0 min 0 min 0 W/m 3,2 km/h (1 Bft) 100,00 %
21.11.2020 05:22 2,1 C 1,7 C 1,1 C 92 % 1032,6 hPa 0,0 l/m 0 min 0 min 0 W/m 3,2 km/h (1 Bft) 91,49 %
21.11.2020 05:24 2,1 C 1,7 C 1,1 C 92 % 1032,5 hPa 0,0 l/m 0 min 0 min 0 W/m 0,0 km/h (0 Bft) 59,52 %
21.11.2020 05:26 2,1 C 1,7 C 1,1 C 92 % 1032,5 hPa 0,0 l/m 0 min 0 min 0 W/m 3,2 km/h (1 Bft) 97,62 %
21.11.2020 05:28 2,1 C 1,7 C 1,1 C 92 % 1032,4 hPa 0,0 l/m 0 min 0 min 0 W/m 12,9 km/h (3 Bft) 95,74 %
21.11.2020 05:30 2,2 C 1,7 C 1,1 C 92 % 1032,4 hPa 0,0 l/m 0 min 0 min 0 W/m 19,3 km/h (3 Bft) 97,87 %
21.11.2020 05:32 2,2 C 1,7 C 1,1 C 92 % 1032,4 hPa 0,0 l/m 0 min 0 min 0 W/m 16,1 km/h (3 Bft) 97,87 %
21.11.2020 05:34 2,2 C 1,7 C 1,1 C 92 % 1032,4 hPa 0,0 l/m 0 min 0 min 0 W/m 6,4 km/h (2 Bft) 93,62 %
21.11.2020 05:36 2,2 C 1,7 C 1,1 C 92 % 1032,5 hPa 0,0 l/m 0 min 0 min 0 W/m 6,4 km/h (2 Bft) 97,83 %
21.11.2020 05:38 2,2 C 1,7 C 1,1 C 92 % 1032,5 hPa 0,0 l/m 0 min 0 min 0 W/m 3,2 km/h (1 Bft) 97,87 %
21.11.2020 05:40 2,3 C 2,2 C 1,7 C 92 % 1032,6 hPa 0,0 l/m 0 min 0 min 0 W/m 3,2 km/h (1 Bft) 97,87 %
21.11.2020 05:42 2,3 C 2,2 C 1,7 C 92 % 1032,6 hPa 0,0 l/m 0 min 0 min 0 W/m 6,4 km/h (2 Bft) 97,87 %
21.11.2020 05:44 2,3 C 2,2 C 1,7 C 92 % 1032,6 hPa 0,0 l/m 0 min 0 min 0 W/m 3,2 km/h (1 Bft) 97,87 %
21.11.2020 05:46 2,3 C 2,2 C 1,7 C 92 % 1032,6 hPa 0,0 l/m 0 min 0 min 0 W/m 3,2 km/h (1 Bft) 97,87 %
21.11.2020 05:48 2,3 C 2,2 C 1,7 C 92 % 1032,6 hPa 0,0 l/m 0 min 0 min 0 W/m 6,4 km/h (2 Bft) 97,83 %
21.11.2020 05:50 2,4 C 2,2 C 1,7 C 92 % 1032,5 hPa 0,0 l/m 0 min 0 min 0 W/m 3,2 km/h (1 Bft) 95,74 %
21.11.2020 05:52 2,4 C 2,2 C 1,7 C 92 % 1032,5 hPa 0,0 l/m 0 min 0 min 0 W/m 12,9 km/h (3 Bft) 97,87 %
21.11.2020 05:54 2,4 C 2,2 C 1,7 C 92 % 1032,5 hPa 0,0 l/m 0 min 0 min 0 W/m 6,4 km/h (2 Bft) 97,87 %
21.11.2020 05:56 2,4 C 2,2 C 1,7 C 92 % 1032,6 hPa 0,0 l/m 0 min 0 min 0 W/m 3,2 km/h (1 Bft) 97,87 %
21.11.2020 05:58 2,4 C 2,2 C 1,7 C 92 % 1032,5 hPa 0,0 l/m 0 min 0 min 0 W/m 3,2 km/h (1 Bft) 97,87 %
21.11.2020 06:00 2,4 C 2,2 C 1,7 C 92 % 1032,4 hPa 0,0 l/m 0 min 0 min 0 W/m 6,4 km/h (2 Bft) 97,83 %
21.11.2020 06:02 2,4 C 2,2 C 1,7 C 92 % 1032,4 hPa 0,0 l/m 0 min 0 min 0 W/m 12,9 km/h (3 Bft) 95,74 %
21.11.2020 06:04 2,5 C 2,2 C 1,7 C 92 % 1032,4 hPa 0,0 l/m 0 min 0 min 0 W/m 6,4 km/h (2 Bft) 97,87 %
21.11.2020 06:08 2,5 C 2,2 C 1,7 C 92 % 1032,4 hPa 0,0 l/m 0 min 0 min 0 W/m 12,9 km/h (3 Bft) 96,81 %
21.11.2020 06:10 2,5 C 2,2 C 1,7 C 92 % 1032,4 hPa 0,0 l/m 0 min 0 min 0 W/m 6,4 km/h (2 Bft) 97,87 %
21.11.2020 06:12 2,6 C 2,2 C 1,7 C 92 % 1032,3 hPa 0,0 l/m 0 min 0 min 0 W/m 12,9 km/h (3 Bft) 95,65 %
21.11.2020 06:14 2,6 C 2,2 C 1,7 C 92 % 1032,2 hPa 0,0 l/m 0 min 0 min 0 W/m 6,4 km/h (2 Bft) 97,87 %
21.11.2020 06:16 2,6 C 2,2 C 1,7 C 92 % 1032,2 hPa 0,0 l/m 0 min 0 min 0 W/m 12,9 km/h (3 Bft) 97,87 %
21.11.2020 06:18 2,6 C 2,8 C 1,7 C 92 % 1032,3 hPa 0,0 l/m 0 min 0 min 0 W/m 16,1 km/h (3 Bft) 95,74 %
21.11.2020 06:20 2,7 C 2,8 C 1,7 C 92 % 1032,3 hPa 0,0 l/m 0 min 0 min 0 W/m 19,3 km/h (3 Bft) 95,74 %
21.11.2020 06:22 2,7 C 2,8 C 2,2 C 92 % 1032,3 hPa 0,0 l/m 0 min 0 min 0 W/m 12,9 km/h (3 Bft) 95,65 %
21.11.2020 06:24 2,8 C 2,8 C 2,2 C 92 % 1032,3 hPa 0,0 l/m 0 min 0 min 0 W/m 12,9 km/h (3 Bft) 97,87 %
21.11.2020 06:26 2,8 C 2,8 C 2,2 C 92 % 1032,2 hPa 0,0 l/m 0 min 0 min 0 W/m 12,9 km/h (3 Bft) 97,87 %
21.11.2020 06:28 2,8 C 2,8 C 2,2 C 92 % 1032,3 hPa 0,0 l/m 0 min 0 min 0 W/m 6,4 km/h (2 Bft) 96,08 %
21.11.2020 06:30 2,8 C 2,8 C 2,2 C 92 % 1032,3 hPa 0,0 l/m 0 min 0 min 0 W/m 16,1 km/h (3 Bft) 93,62 %
21.11.2020 06:32 2,8 C 2,8 C 2,2 C 92 % 1032,3 hPa 0,0 l/m 0 min 0 min 0 W/m 12,9 km/h (3 Bft) 97,87 %
21.11.2020 06:34 2,9 C 2,8 C 2,2 C 92 % 1032,3 hPa 0,0 l/m 0 min 0 min 0 W/m 6,4 km/h (2 Bft) 95,74 %
21.11.2020 06:36 2,9 C 2,8 C 2,2 C 92 % 1032,3 hPa 0,0 l/m 0 min 0 min 0 W/m 19,3 km/h (3 Bft) 95,65 %
21.11.2020 06:38 2,9 C 2,8 C 2,2 C 92 % 1032,1 hPa 0,0 l/m 0 min 0 min 0 W/m 16,1 km/h (3 Bft) 97,87 %
21.11.2020 06:40 2,9 C 2,8 C 2,2 C 92 % 1032,1 hPa 0,0 l/m 0 min 0 min 0 W/m 12,9 km/h (3 Bft) 95,74 %
21.11.2020 06:42 3,0 C 2,8 C 2,2 C 92 % 1032,1 hPa 0,0 l/m 0 min 0 min 0 W/m 6,4 km/h (2 Bft) 93,62 %
21.11.2020 06:44 3,0 C 2,8 C 2,2 C 92 % 1032,0 hPa 0,0 l/m 0 min 0 min 0 W/m 16,1 km/h (3 Bft) 93,62 %
21.11.2020 06:46 3,0 C 2,8 C 2,2 C 92 % 1032,1 hPa 0,0 l/m 0 min 0 min 0 W/m 9,7 km/h (2 Bft) 95,74 %
21.11.2020 06:48 3,0 C 2,8 C 2,2 C 92 % 1032,0 hPa 0,0 l/m 0 min 0 min 0 W/m 16,1 km/h (3 Bft) 95,65 %
21.11.2020 06:50 3,1 C 2,8 C 2,2 C 92 % 1032,0 hPa 0,0 l/m 0 min 0 min 0 W/m 19,3 km/h (3 Bft) 95,74 %
21.11.2020 06:52 3,1 C 2,8 C 2,2 C 92 % 1031,9 hPa 0,0 l/m 0 min 0 min 0 W/m 6,4 km/h (2 Bft) 95,74 %
21.11.2020 06:54 3,1 C 2,8 C 2,2 C 91 % 1031,9 hPa 0,0 l/m 0 min 0 min 0 W/m 19,3 km/h (3 Bft) 95,74 %
21.11.2020 06:56 3,2 C 2,8 C 2,2 C 92 % 1031,9 hPa 0,0 l/m 0 min 0 min 0 W/m 16,1 km/h (3 Bft) 95,74 %
21.11.2020 06:58 3,2 C 2,8 C 2,2 C 92 % 1031,9 hPa 0,0 l/m 0 min 0 min 0 W/m 22,5 km/h (4 Bft) 95,65 %
21.11.2020 07:00 3,3 C 2,8 C 2,2 C 92 % 1031,9 hPa 0,0 l/m 0 min 0 min 0 W/m 3,2 km/h (1 Bft) 93,62 %
21.11.2020 07:02 3,3 C 3,3 C 2,2 C 91 % 1031,9 hPa 0,0 l/m 0 min 0 min 0 W/m 19,3 km/h (3 Bft) 93,62 %
21.11.2020 07:04 3,3 C 3,3 C 2,2 C 91 % 1031,9 hPa 0,0 l/m 0 min 0 min 0 W/m 22,5 km/h (4 Bft) 95,74 %
21.11.2020 07:06 3,3 C 3,3 C 2,8 C 91 % 1031,8 hPa 0,0 l/m 0 min 0 min 0 W/m 19,3 km/h (3 Bft) 95,74 %
21.11.2020 07:08 3,4 C 3,3 C 2,8 C 91 % 1031,8 hPa 0,0 l/m 0 min 0 min 0 W/m 19,3 km/h (3 Bft) 97,83 %
21.11.2020 07:10 3,4 C 3,3 C 2,8 C 91 % 1031,9 hPa 0,0 l/m 0 min 0 min 0 W/m 3,2 km/h (1 Bft) 93,48 %
21.11.2020 07:12 3,4 C 3,3 C 2,8 C 91 % 1031,9 hPa 0,0 l/m 0 min 0 min 0 W/m 9,7 km/h (2 Bft) 95,74 %
21.11.2020 07:14 3,4 C 3,3 C 2,8 C 91 % 1031,9 hPa 0,0 l/m 0 min 0 min 0 W/m 12,9 km/h (3 Bft) 95,74 %
21.11.2020 07:16 3,4 C 3,3 C 2,8 C 91 % 1031,9 hPa 0,0 l/m 0 min 0 min 0 W/m 12,9 km/h (3 Bft) 91,49 %
21.11.2020 07:18 3,5 C 3,3 C 2,8 C 91 % 1031,8 hPa 0,0 l/m 0 min 0 min 0 W/m 12,9 km/h (3 Bft) 97,87 %
21.11.2020 07:20 3,5 C 3,3 C 2,8 C 91 % 1031,7 hPa 0,0 l/m 0 min 0 min 0 W/m 6,4 km/h (2 Bft) 97,87 %
21.11.2020 07:22 3,5 C 3,3 C 2,8 C 91 % 1031,8 hPa 0,0 l/m 0 min 0 min 0 W/m 16,1 km/h (3 Bft) 97,83 %
21.11.2020 07:24 3,5 C 3,3 C 2,8 C 91 % 1031,8 hPa 0,0 l/m 0 min 0 min 0 W/m 6,4 km/h (2 Bft) 95,74 %
21.11.2020 07:26 3,5 C 3,3 C 2,8 C 91 % 1031,8 hPa 0,0 l/m 0 min 0 min 0 W/m 16,1 km/h (3 Bft) 100,00 %
21.11.2020 07:28 3,5 C 3,3 C 2,8 C 91 % 1031,8 hPa 0,0 l/m 0 min 0 min 0 W/m 19,3 km/h (3 Bft) 100,00 %
21.11.2020 07:30 3,5 C 3,3 C 2,8 C 91 % 1031,8 hPa 0,0 l/m 0 min 0 min 0 W/m 12,9 km/h (3 Bft) 100,00 %
21.11.2020 07:32 3,6 C 3,3 C 2,8 C 91 % 1031,8 hPa 0,0 l/m 0 min 0 min 0 W/m 19,3 km/h (3 Bft) 100,00 %
21.11.2020 07:34 3,6 C 3,3 C 2,8 C 91 % 1031,8 hPa 0,0 l/m 0 min 0 min 0 W/m 12,9 km/h (3 Bft) 97,87 %
21.11.2020 07:36 3,6 C 3,3 C 2,8 C 91 % 1031,7 hPa 0,0 l/m 0 min 0 min 0 W/m 16,1 km/h (3 Bft) 100,00 %
21.11.2020 07:38 3,6 C 3,3 C 2,8 C 91 % 1031,7 hPa 0,0 l/m 0 min 0 min 0 W/m 12,9 km/h (3 Bft) 100,00 %
21.11.2020 07:40 3,6 C 3,3 C 2,8 C 91 % 1031,7 hPa 0,0 l/m 0 min 0 min 0 W/m 6,4 km/h (2 Bft) 100,00 %
21.11.2020 07:42 3,6 C 3,3 C 2,8 C 91 % 1031,7 hPa 0,0 l/m 0 min 0 min 0 W/m 9,7 km/h (2 Bft) 100,00 %
21.11.2020 07:44 3,6 C 3,3 C 2,8 C 91 % 1031,7 hPa 0,0 l/m 0 min 0 min 0 W/m 19,3 km/h (3 Bft) 100,00 %
21.11.2020 07:46 3,7 C 3,3 C 2,8 C 90 % 1031,7 hPa 0,0 l/m 0 min 0 min 0 W/m 16,1 km/h (3 Bft) 100,00 %
21.11.2020 07:48 3,6 C 3,3 C 2,8 C 90 % 1031,7 hPa 0,0 l/m 0 min 0 min 0 W/m 16,1 km/h (3 Bft) 100,00 %
21.11.2020 07:50 3,7 C 3,3 C 2,8 C 90 % 1031,7 hPa 0,0 l/m 0 min 0 min 0 W/m 16,1 km/h (3 Bft) 100,00 %
21.11.2020 07:52 3,7 C 3,3 C 2,8 C 90 % 1031,7 hPa 0,0 l/m 0 min 0 min 0 W/m 22,5 km/h (4 Bft) 100,00 %
21.11.2020 07:54 3,7 C 3,3 C 2,8 C 90 % 1031,8 hPa 0,0 l/m 0 min 0 min 0 W/m 22,5 km/h (4 Bft) 100,00 %
21.11.2020 07:56 3,8 C 3,3 C 2,8 C 90 % 1031,8 hPa 0,0 l/m 0 min 0 min 0 W/m 3,2 km/h (1 Bft) 100,00 %
21.11.2020 07:58 3,8 C 3,3 C 2,8 C 90 % 1031,6 hPa 0,0 l/m 0 min 0 min 0 W/m 16,1 km/h (3 Bft) 100,00 %
21.11.2020 08:00 3,8 C 3,3 C 2,8 C 90 % 1031,7 hPa 0,0 l/m 0 min 0 min 0 W/m 16,1 km/h (3 Bft) 100,00 %
21.11.2020 08:02 3,8 C 3,3 C 2,8 C 90 % 1031,7 hPa 0,0 l/m 0 min 0 min 0 W/m 19,3 km/h (3 Bft) 100,00 %
21.11.2020 08:04 3,8 C 3,3 C 2,8 C 90 % 1031,8 hPa 0,0 l/m 0 min 0 min 0 W/m 16,1 km/h (3 Bft) 100,00 %
21.11.2020 08:06 3,8 C 3,3 C 2,8 C 90 % 1031,8 hPa 0,0 l/m 0 min 0 min 0 W/m 16,1 km/h (3 Bft) 100,00 %
21.11.2020 08:08 3,8 C 3,3 C 2,8 C 90 % 1031,7 hPa 0,0 l/m 0 min 0 min 0 W/m 12,9 km/h (3 Bft) 100,00 %
21.11.2020 08:10 3,8 C 3,3 C 2,8 C 90 % 1031,7 hPa 0,0 l/m 0 min 0 min 0 W/m 19,3 km/h (3 Bft) 100,00 %
21.11.2020 08:12 3,9 C 3,3 C 2,8 C 90 % 1031,6 hPa 0,0 l/m 0 min 0 min 0 W/m 19,3 km/h (3 Bft) 97,96 %
21.11.2020 08:14 3,9 C 3,3 C 2,8 C 90 % 1031,6 hPa 0,0 l/m 0 min 0 min 4 W/m 12,9 km/h (3 Bft) 100,00 %
21.11.2020 08:16 3,9 C 3,3 C 2,8 C 90 % 1031,6 hPa 0,0 l/m 0 min 0 min 5 W/m 12,9 km/h (3 Bft) 97,87 %
21.11.2020 08:18 3,9 C 3,3 C 2,8 C 90 % 1031,6 hPa 0,0 l/m 0 min 0 min 7 W/m 16,1 km/h (3 Bft) 98,15 %
21.11.2020 08:20 3,9 C 3,3 C 2,8 C 90 % 1031,7 hPa 0,0 l/m 0 min 0 min 8 W/m 19,3 km/h (3 Bft) 100,00 %
21.11.2020 08:22 3,9 C 3,3 C 2,8 C 90 % 1031,7 hPa 0,0 l/m 0 min 0 min 9 W/m 16,1 km/h (3 Bft) 95,92 %
21.11.2020 08:24 3,9 C 3,9 C 2,8 C 90 % 1031,8 hPa 0,0 l/m 0 min 0 min 10 W/m 6,4 km/h (2 Bft) 100,00 %
21.11.2020 08:26 3,9 C 3,9 C 2,8 C 90 % 1031,7 hPa 0,0 l/m 0 min 0 min 11 W/m 12,9 km/h (3 Bft) 100,00 %
21.11.2020 08:28 3,9 C 3,9 C 2,8 C 90 % 1031,8 hPa 0,0 l/m 0 min 0 min 12 W/m 19,3 km/h (3 Bft) 97,87 %
21.11.2020 08:30 4,0 C 3,9 C 3,4 C 90 % 1031,7 hPa 0,0 l/m 0 min 0 min 12 W/m 25,7 km/h (4 Bft) 100,00 %
21.11.2020 08:32 4,0 C 3,9 C 3,4 C 90 % 1031,7 hPa 0,0 l/m 0 min 0 min 13 W/m 16,1 km/h (3 Bft) 100,00 %
21.11.2020 08:34 4,0 C 3,9 C 3,4 C 90 % 1031,7 hPa 0,0 l/m 0 min 0 min 15 W/m 16,1 km/h (3 Bft) 97,92 %
21.11.2020 08:36 4,0 C 3,9 C 3,4 C 90 % 1031,7 hPa 0,0 l/m 0 min 0 min 18 W/m 9,7 km/h (2 Bft) 100,00 %
21.11.2020 08:38 4,0 C 3,9 C 3,4 C 90 % 1031,7 hPa 0,0 l/m 0 min 0 min 18 W/m 12,9 km/h (3 Bft) 100,00 %
21.11.2020 08:40 4,0 C 3,9 C 3,4 C 90 % 1031,8 hPa 0,0 l/m 0 min 0 min 18 W/m 16,1 km/h (3 Bft) 94,29 %
21.11.2020 08:42 4,1 C 3,9 C 3,4 C 90 % 1031,8 hPa 0,0 l/m 0 min 0 min 18 W/m 6,4 km/h (2 Bft) 100,00 %
21.11.2020 08:44 4,1 C 3,9 C 3,4 C 90 % 1031,8 hPa 0,0 l/m 0 min 0 min 19 W/m 19,3 km/h (3 Bft) 97,92 %
21.11.2020 08:46 4,1 C 3,9 C 3,4 C 90 % 1031,7 hPa 0,0 l/m 0 min 0 min 21 W/m 9,7 km/h (2 Bft) 100,00 %
21.11.2020 08:48 4,1 C 3,9 C 3,4 C 90 % 1031,7 hPa 0,0 l/m 0 min 0 min 23 W/m 19,3 km/h (3 Bft) 100,00 %
21.11.2020 08:50 4,1 C 3,9 C 3,4 C 90 % 1031,7 hPa 0,0 l/m 0 min 0 min 24 W/m 16,1 km/h (3 Bft) 100,00 %
21.11.2020 08:52 4,1 C 3,9 C 3,4 C 90 % 1031,7 hPa 0,0 l/m 0 min 0 min 21 W/m 6,4 km/h (2 Bft) 100,00 %
21.11.2020 08:54 4,1 C 3,9 C 3,4 C 90 % 1031,6 hPa 0,0 l/m 0 min 0 min 21 W/m 19,3 km/h (3 Bft) 100,00 %
21.11.2020 08:56 4,1 C 3,9 C 3,4 C 90 % 1031,7 hPa 0,0 l/m 0 min 0 min 21 W/m 16,1 km/h (3 Bft) 100,00 %
21.11.2020 08:58 4,1 C 3,9 C 3,4 C 90 % 1031,6 hPa 0,0 l/m 0 min 0 min 21 W/m 12,9 km/h (3 Bft) 100,00 %
21.11.2020 09:00 4,2 C 3,9 C 3,4 C 90 % 1031,6 hPa 0,0 l/m 0 min 0 min 23 W/m 12,9 km/h (3 Bft) 97,87 %
21.11.2020 09:02 4,3 C 3,9 C 3,4 C 90 % 1031,6 hPa 0,0 l/m 0 min 0 min 27 W/m 19,3 km/h (3 Bft) 100,00 %
21.11.2020 09:04 4,3 C 3,9 C 3,4 C 90 % 1031,6 hPa 0,0 l/m 0 min 0 min 30 W/m 12,9 km/h (3 Bft) 97,92 %
21.11.2020 09:06 4,3 C 3,9 C 3,4 C 90 % 1031,6 hPa 0,0 l/m 0 min 0 min 33 W/m 16,1 km/h (3 Bft) 97,87 %
21.11.2020 09:08 4,3 C 3,9 C 3,4 C 90 % 1031,7 hPa 0,0 l/m 0 min 0 min 37 W/m 3,2 km/h (1 Bft) 97,87 %
21.11.2020 09:10 4,3 C 3,9 C 3,4 C 90 % 1031,7 hPa 0,0 l/m 0 min 0 min 37 W/m 6,4 km/h (2 Bft) 100,00 %
21.11.2020 09:12 4,3 C 3,9 C 3,4 C 90 % 1031,6 hPa 0,0 l/m 0 min 0 min 35 W/m 19,3 km/h (3 Bft) 100,00 %
21.11.2020 09:14 4,3 C 3,9 C 3,4 C 90 % 1031,6 hPa 0,0 l/m 0 min 0 min 33 W/m 12,9 km/h (3 Bft) 98,18 %
21.11.2020 09:16 4,4 C 3,9 C 3,4 C 90 % 1031,6 hPa 0,0 l/m 0 min 0 min 34 W/m 6,4 km/h (2 Bft) 95,83 %
21.11.2020 09:18 4,4 C 3,9 C 3,4 C 90 % 1031,5 hPa 0,0 l/m 0 min 0 min 33 W/m 16,1 km/h (3 Bft) 93,62 %
21.11.2020 09:20 4,4 C 4,4 C 3,4 C 90 % 1031,5 hPa 0,0 l/m 0 min 0 min 31 W/m 6,4 km/h (2 Bft) 95,83 %
21.11.2020 09:22 4,4 C 4,4 C 3,9 C 90 % 1031,5 hPa 0,0 l/m 0 min 0 min 31 W/m 6,4 km/h (2 Bft) 93,75 %
21.11.2020 09:24 4,4 C 4,4 C 3,9 C 90 % 1031,4 hPa 0,0 l/m 0 min 0 min 31 W/m 16,1 km/h (3 Bft) 95,74 %
21.11.2020 09:26 4,5 C 4,4 C 3,4 C 90 % 1031,5 hPa 0,0 l/m 0 min 0 min 29 W/m 16,1 km/h (3 Bft) 97,14 %
21.11.2020 09:28 4,5 C 4,4 C 3,9 C 90 % 1031,5 hPa 0,0 l/m 0 min 0 min 29 W/m 6,4 km/h (2 Bft) 95,74 %
21.11.2020 09:30 4,5 C 4,4 C 3,9 C 90 % 1031,4 hPa 0,0 l/m 0 min 0 min 29 W/m 22,5 km/h (4 Bft) 93,48 %
21.11.2020 09:32 4,5 C 4,4 C 3,9 C 90 % 1031,4 hPa 0,0 l/m 0 min 0 min 28 W/m 3,2 km/h (1 Bft) 93,22 %
21.11.2020 09:34 4,5 C 4,4 C 3,9 C 90 % 1031,4 hPa 0,0 l/m 0 min 0 min 27 W/m 6,4 km/h (2 Bft) 93,62 %
21.11.2020 09:36 4,5 C 4,4 C 3,9 C 90 % 1031,4 hPa 0,0 l/m 0 min 0 min 29 W/m 6,4 km/h (2 Bft) 94,29 %
21.11.2020 09:38 4,5 C 4,4 C 3,9 C 90 % 1031,3 hPa 0,0 l/m 0 min 0 min 26 W/m 16,1 km/h (3 Bft) 91,49 %
21.11.2020 09:40 4,6 C 4,4 C 3,9 C 90 % 1031,3 hPa 0,0 l/m 0 min 0 min 24 W/m 12,9 km/h (3 Bft) 94,44 %
21.11.2020 09:42 4,6 C 4,4 C 3,9 C 90 % 1031,3 hPa 0,0 l/m 0 min 0 min 23 W/m 3,2 km/h (1 Bft) 91,67 %
21.11.2020 09:44 4,6 C 4,4 C 3,9 C 90 % 1031,2 hPa 0,0 l/m 0 min 0 min 23 W/m 12,9 km/h (3 Bft) 91,84 %
21.11.2020 09:46 4,6 C 4,4 C 3,9 C 90 % 1031,1 hPa 0,0 l/m 0 min 0 min 23 W/m 12,9 km/h (3 Bft) 91,67 %
21.11.2020 09:48 4,7 C 4,4 C 3,9 C 90 % 1031,0 hPa 0,0 l/m 0 min 0 min 23 W/m 3,2 km/h (1 Bft) 93,88 %
21.11.2020 09:50 4,7 C 4,4 C 3,9 C 90 % 1031,1 hPa 0,0 l/m 0 min 0 min 20 W/m 3,2 km/h (1 Bft) 91,67 %
21.11.2020 09:52 4,8 C 4,4 C 3,9 C 90 % 1031,0 hPa 0,0 l/m 0 min 0 min 18 W/m 22,5 km/h (4 Bft) 93,48 %
21.11.2020 09:54 4,8 C 4,4 C 3,9 C 90 % 1031,0 hPa 0,0 l/m 0 min 0 min 19 W/m 16,1 km/h (3 Bft) 91,49 %
21.11.2020 09:56 4,8 C 4,4 C 3,9 C 90 % 1031,0 hPa 0,0 l/m 0 min 0 min 19 W/m 0,0 km/h (0 Bft) 91,49 %
21.11.2020 09:58 4,9 C 5,0 C 3,9 C 90 % 1030,9 hPa 0,0 l/m 0 min 0 min 21 W/m 19,3 km/h (3 Bft) 90,74 %
21.11.2020 10:00 4,9 C 5,0 C 3,9 C 90 % 1030,8 hPa 0,0 l/m 0 min 0 min 21 W/m 16,1 km/h (3 Bft) 95,92 %
21.11.2020 10:02 4,9 C 5,0 C 3,9 C 90 % 1030,9 hPa 0,0 l/m 0 min 0 min 21 W/m 6,4 km/h (2 Bft) 97,37 %
21.11.2020 10:04 4,9 C 5,0 C 4,5 C 90 % 1031,0 hPa 0,0 l/m 0 min 0 min 21 W/m 12,9 km/h (3 Bft) 97,83 %
21.11.2020 10:06 5,0 C 5,0 C 4,5 C 90 % 1030,9 hPa 0,0 l/m 0 min 0 min 21 W/m 19,3 km/h (3 Bft) 97,87 %
21.11.2020 10:08 5,0 C 5,0 C 4,5 C 90 % 1030,9 hPa 0,0 l/m 0 min 0 min 22 W/m 12,9 km/h (3 Bft) 97,87 %
21.11.2020 10:10 5,1 C 5,0 C 4,5 C 90 % 1031,0 hPa 0,0 l/m 0 min 0 min 21 W/m 12,9 km/h (3 Bft) 98,18 %
21.11.2020 10:12 5,1 C 5,0 C 4,5 C 90 % 1031,0 hPa 0,0 l/m 0 min 0 min 22 W/m 19,3 km/h (3 Bft) 97,87 %
21.11.2020 10:14 5,2 C 5,6 C 4,5 C 91 % 1030,9 hPa 0,0 l/m 0 min 0 min 26 W/m 25,7 km/h (4 Bft) 97,92 %
21.11.2020 10:16 5,3 C 5,6 C 5,0 C 91 % 1030,9 hPa 0,0 l/m 0 min 0 min 27 W/m 16,1 km/h (3 Bft) 97,92 %
21.11.2020 10:18 5,4 C 5,6 C 5,0 C 90 % 1030,9 hPa 0,0 l/m 0 min 0 min 25 W/m 25,7 km/h (4 Bft) 94,44 %
21.11.2020 10:20 5,4 C 6,1 C 5,0 C 90 % 1030,9 hPa 0,0 l/m 0 min 0 min 26 W/m 19,3 km/h (3 Bft) 98,00 %
21.11.2020 10:22 5,5 C 6,1 C 5,0 C 90 % 1030,9 hPa 0,0 l/m 0 min 0 min 28 W/m 6,4 km/h (2 Bft) 98,00 %
21.11.2020 10:24 5,6 C 6,1 C 5,0 C 90 % 1030,9 hPa 0,0 l/m 0 min 0 min 26 W/m 19,3 km/h (3 Bft) 97,87 %
21.11.2020 10:26 5,6 C 6,1 C 5,0 C 90 % 1031,0 hPa 0,0 l/m 0 min 0 min 32 W/m 29,0 km/h (5 Bft) 97,87 %
21.11.2020 10:28 5,8 C 6,1 C 5,0 C 89 % 1031,0 hPa 0,0 l/m 0 min 0 min 34 W/m 12,9 km/h (3 Bft) 95,65 %
21.11.2020 10:30 5,9 C 6,1 C 5,6 C 89 % 1031,0 hPa 0,0 l/m 0 min 0 min 33 W/m 12,9 km/h (3 Bft) 100,00 %
21.11.2020 10:32 5,9 C 6,1 C 5,6 C 89 % 1031,0 hPa 0,0 l/m 0 min 0 min 29 W/m 19,3 km/h (3 Bft) 95,92 %
21.11.2020 10:34 6,0 C 6,1 C 5,6 C 89 % 1031,0 hPa 0,0 l/m 0 min 0 min 31 W/m 12,9 km/h (3 Bft) 100,00 %
21.11.2020 10:36 6,0 C 6,1 C 5,6 C 88 % 1030,9 hPa 0,0 l/m 0 min 0 min 38 W/m 25,7 km/h (4 Bft) 97,87 %
21.11.2020 10:38 6,1 C 6,1 C 5,6 C 88 % 1030,9 hPa 0,0 l/m 0 min 0 min 47 W/m 22,5 km/h (4 Bft) 100,00 %
21.11.2020 10:40 6,2 C 6,1 C 5,6 C 88 % 1030,9 hPa 0,0 l/m 0 min 0 min 58 W/m 19,3 km/h (3 Bft) 100,00 %
21.11.2020 10:42 6,3 C 6,7 C 5,6 C 88 % 1030,9 hPa 0,0 l/m 0 min 0 min 70 W/m 12,9 km/h (3 Bft) 100,00 %
21.11.2020 10:44 6,3 C 6,7 C 5,6 C 87 % 1030,8 hPa 0,0 l/m 0 min 0 min 70 W/m 19,3 km/h (3 Bft) 97,92 %
21.11.2020 10:46 6,4 C 6,7 C 5,6 C 87 % 1030,8 hPa 0,0 l/m 0 min 0 min 71 W/m 22,5 km/h (4 Bft) 93,75 %
21.11.2020 10:48 6,4 C 6,7 C 5,6 C 87 % 1030,8 hPa 0,0 l/m 0 min 0 min 75 W/m 22,5 km/h (4 Bft) 97,87 %
21.11.2020 10:50 6,5 C 6,7 C 6,1 C 87 % 1030,9 hPa 0,0 l/m 0 min 0 min 87 W/m 22,5 km/h (4 Bft) 100,00 %
21.11.2020 10:52 6,5 C 6,7 C 6,1 C 87 % 1030,9 hPa 0,0 l/m 0 min 0 min 90 W/m 16,1 km/h (3 Bft) 100,00 %
21.11.2020 10:54 6,6 C 6,7 C 6,1 C 87 % 1030,8 hPa 0,0 l/m 0 min 0 min 83 W/m 19,3 km/h (3 Bft) 100,00 %
21.11.2020 10:56 6,7 C 6,7 C 6,1 C 87 % 1030,7 hPa 0,0 l/m 0 min 0 min 77 W/m 25,7 km/h (4 Bft) 97,96 %
21.11.2020 10:58 6,8 C 6,7 C 6,1 C 86 % 1030,8 hPa 0,0 l/m 0 min 0 min 73 W/m 25,7 km/h (4 Bft) 100,00 %
21.11.2020 11:00 6,8 C 6,7 C 6,1 C 86 % 1030,9 hPa 0,0 l/m 0 min 0 min 74 W/m 19,3 km/h (3 Bft) 100,00 %
21.11.2020 11:02 6,8 C 6,7 C 6,1 C 86 % 1030,8 hPa 0,0 l/m 0 min 0 min 77 W/m 6,4 km/h (2 Bft) 100,00 %
21.11.2020 11:04 6,9 C 6,7 C 6,1 C 86 % 1030,8 hPa 0,0 l/m 0 min 0 min 70 W/m 6,4 km/h (2 Bft) 97,87 %
21.11.2020 11:06 6,9 C 7,2 C 6,1 C 86 % 1030,8 hPa 0,0 l/m 0 min 0 min 71 W/m 16,1 km/h (3 Bft) 100,00 %
21.11.2020 11:08 7,0 C 7,2 C 6,1 C 86 % 1030,7 hPa 0,0 l/m 0 min 0 min 97 W/m 16,1 km/h (3 Bft) 100,00 %
21.11.2020 11:10 7,0 C 7,2 C 6,7 C 86 % 1030,7 hPa 0,0 l/m 0 min 0 min 116 W/m 19,3 km/h (3 Bft) 100,00 %
21.11.2020 11:12 7,0 C 7,2 C 6,7 C 86 % 1030,7 hPa 0,0 l/m 0 min 0 min 110 W/m 12,9 km/h (3 Bft) 100,00 %
21.11.2020 11:14 7,1 C 7,2 C 6,7 C 86 % 1030,7 hPa 0,0 l/m 0 min 0 min 89 W/m 6,4 km/h (2 Bft) 100,00 %
21.11.2020 11:16 7,1 C 7,2 C 6,7 C 86 % 1030,7 hPa 0,0 l/m 0 min 0 min 86 W/m 19,3 km/h (3 Bft) 100,00 %
21.11.2020 11:18 7,2 C 7,2 C 6,7 C 86 % 1030,6 hPa 0,0 l/m 0 min 0 min 90 W/m 19,3 km/h (3 Bft) 100,00 %
21.11.2020 11:20 7,2 C 7,2 C 6,7 C 86 % 1030,6 hPa 0,0 l/m 0 min 0 min 75 W/m 0,0 km/h (0 Bft) 97,87 %
21.11.2020 11:22 7,3 C 7,2 C 6,7 C 86 % 1030,6 hPa 0,0 l/m 0 min 0 min 69 W/m 25,7 km/h (4 Bft) 100,00 %
21.11.2020 11:24 7,3 C 7,2 C 6,7 C 85 % 1030,6 hPa 0,0 l/m 0 min 0 min 65 W/m 19,3 km/h (3 Bft) 97,83 %
21.11.2020 11:26 7,4 C 7,2 C 6,7 C 85 % 1030,6 hPa 0,0 l/m 0 min 0 min 63 W/m 12,9 km/h (3 Bft) 100,00 %
21.11.2020 11:28 7,4 C 7,2 C 6,7 C 85 % 1030,6 hPa 0,0 l/m 0 min 0 min 60 W/m 16,1 km/h (3 Bft) 100,00 %
21.11.2020 11:30 7,4 C 7,2 C 6,7 C 85 % 1030,6 hPa 0,0 l/m 0 min 0 min 64 W/m 16,1 km/h (3 Bft) 100,00 %
21.11.2020 11:32 7,4 C 7,2 C 6,7 C 85 % 1030,5 hPa 0,0 l/m 0 min 0 min 75 W/m 19,3 km/h (3 Bft) 100,00 %
21.11.2020 11:34 7,5 C 7,2 C 6,7 C 85 % 1030,5 hPa 0,0 l/m 0 min 0 min 75 W/m 12,9 km/h (3 Bft) 100,00 %
21.11.2020 11:36 7,5 C 7,2 C 6,7 C 85 % 1030,5 hPa 0,0 l/m 0 min 0 min 77 W/m 29,0 km/h (5 Bft) 100,00 %
21.11.2020 11:38 7,5 C 7,8 C 6,7 C 85 % 1030,5 hPa 0,0 l/m 0 min 0 min 69 W/m 12,9 km/h (3 Bft) 100,00 %
21.11.2020 11:40 7,6 C 7,8 C 6,7 C 85 % 1030,5 hPa 0,0 l/m 0 min 0 min 76 W/m 22,5 km/h (4 Bft) 100,00 %
21.11.2020 11:42 7,6 C 7,8 C 6,7 C 85 % 1030,5 hPa 0,0 l/m 0 min 0 min 84 W/m 29,0 km/h (5 Bft) 100,00 %
21.11.2020 11:44 7,7 C 7,8 C 6,7 C 85 % 1030,6 hPa 0,0 l/m 0 min 0 min 97 W/m 25,7 km/h (4 Bft) 100,00 %
21.11.2020 11:46 7,8 C 7,8 C 7,2 C 85 % 1030,5 hPa 0,0 l/m 0 min 0 min 92 W/m 22,5 km/h (4 Bft) 100,00 %
21.11.2020 11:48 7,8 C 7,8 C 7,2 C 85 % 1030,5 hPa 0,0 l/m 0 min 0 min 88 W/m 22,5 km/h (4 Bft) 100,00 %
21.11.2020 11:50 7,9 C 7,8 C 7,2 C 85 % 1030,5 hPa 0,0 l/m 0 min 0 min 75 W/m 25,7 km/h (4 Bft) 100,00 %
21.11.2020 11:52 7,9 C 7,8 C 7,2 C 85 % 1030,5 hPa 0,0 l/m 0 min 0 min 79 W/m 22,5 km/h (4 Bft) 93,88 %
21.11.2020 11:54 7,9 C 7,8 C 7,2 C 84 % 1030,5 hPa 0,0 l/m 0 min 0 min 103 W/m 25,7 km/h (4 Bft) 93,75 %
21.11.2020 11:56 8,0 C 8,3 C 7,2 C 84 % 1030,5 hPa 0,0 l/m 0 min 0 min 105 W/m 16,1 km/h (3 Bft) 97,14 %
21.11.2020 11:58 8,0 C 8,3 C 7,2 C 84 % 1030,4 hPa 0,0 l/m 0 min 0 min 107 W/m 19,3 km/h (3 Bft) 95,74 %
21.11.2020 12:00 8,1 C 8,3 C 7,2 C 84 % 1030,4 hPa 0,0 l/m 0 min 0 min 119 W/m 22,5 km/h (4 Bft) 95,74 %
21.11.2020 12:02 8,1 C 8,3 C 7,8 C 84 % 1030,4 hPa 0,0 l/m 0 min 0 min 122 W/m 0,0 km/h (0 Bft) 94,55 %
21.11.2020 12:04 8,2 C 8,3 C 7,8 C 84 % 1030,4 hPa 0,0 l/m 0 min 0 min 108 W/m 16,1 km/h (3 Bft) 97,96 %
21.11.2020 12:08 8,3 C 8,3 C 7,8 C 83 % 1030,2 hPa 0,0 l/m 0 min 0 min 119 W/m 41,8 km/h (6 Bft) 95,79 %
21.11.2020 12:10 8,3 C 8,3 C 7,8 C 83 % 1030,3 hPa 0,0 l/m 0 min 0 min 119 W/m 19,3 km/h (3 Bft) 93,48 %
21.11.2020 12:12 8,4 C 8,3 C 7,8 C 83 % 1030,2 hPa 0,0 l/m 0 min 0 min 122 W/m 22,5 km/h (4 Bft) 100,00 %
21.11.2020 12:14 8,4 C 8,3 C 7,8 C 83 % 1030,2 hPa 0,0 l/m 0 min 0 min 116 W/m 25,7 km/h (4 Bft) 95,65 %
21.11.2020 12:16 8,5 C 8,3 C 7,8 C 82 % 1030,2 hPa 0,0 l/m 0 min 0 min 108 W/m 25,7 km/h (4 Bft) 92,73 %
21.11.2020 12:18 8,5 C 8,3 C 7,2 C 82 % 1030,2 hPa 0,0 l/m 0 min 0 min 103 W/m 38,6 km/h (5 Bft) 95,83 %
21.11.2020 12:20 8,5 C 8,3 C 7,8 C 82 % 1030,2 hPa 0,0 l/m 0 min 0 min 117 W/m 29,0 km/h (5 Bft) 93,75 %
21.11.2020 12:22 8,5 C 8,3 C 7,8 C 82 % 1030,1 hPa 0,0 l/m 0 min 0 min 114 W/m 35,4 km/h (5 Bft) 95,83 %
21.11.2020 12:24 8,6 C 8,3 C 7,8 C 82 % 1030,1 hPa 0,0 l/m 0 min 0 min 107 W/m 25,7 km/h (4 Bft) 95,74 %
21.11.2020 12:26 8,6 C 8,9 C 7,8 C 82 % 1030,1 hPa 0,0 l/m 0 min 0 min 111 W/m 29,0 km/h (5 Bft) 94,29 %
21.11.2020 12:28 8,6 C 8,9 C 7,8 C 82 % 1030,0 hPa 0,0 l/m 0 min 0 min 114 W/m 25,7 km/h (4 Bft) 95,74 %
21.11.2020 12:30 8,7 C 8,9 C 7,8 C 81 % 1030,0 hPa 0,0 l/m 0 min 0 min 122 W/m 32,2 km/h (5 Bft) 94,44 %
21.11.2020 12:32 8,8 C 8,9 C 7,8 C 81 % 1029,9 hPa 0,0 l/m 0 min 0 min 135 W/m 32,2 km/h (5 Bft) 95,92 %
21.11.2020 12:34 8,8 C 8,9 C 8,4 C 81 % 1029,9 hPa 0,0 l/m 0 min 0 min 136 W/m 12,9 km/h (3 Bft) 97,92 %
21.11.2020 12:36 8,8 C 8,9 C 7,8 C 81 % 1029,9 hPa 0,0 l/m 0 min 0 min 142 W/m 25,7 km/h (4 Bft) 97,92 %
21.11.2020 12:38 8,9 C 8,9 C 8,4 C 81 % 1029,9 hPa 0,0 l/m 0 min 0 min 143 W/m 16,1 km/h (3 Bft) 95,74 %
21.11.2020 12:40 8,9 C 9,4 C 8,4 C 81 % 1029,8 hPa 0,0 l/m 0 min 0 min 149 W/m 29,0 km/h (5 Bft) 95,83 %
21.11.2020 12:42 8,9 C 9,4 C 8,4 C 80 % 1029,8 hPa 0,0 l/m 0 min 0 min 159 W/m 25,7 km/h (4 Bft) 100,00 %
21.11.2020 12:44 9,0 C 9,4 C 8,9 C 81 % 1029,7 hPa 0,0 l/m 2 min 0 min 176 W/m 25,7 km/h (4 Bft) 97,87 %
21.11.2020 12:46 9,0 C 9,4 C 8,9 C 81 % 1029,7 hPa 0,0 l/m 2 min 0 min 188 W/m 25,7 km/h (4 Bft) 93,62 %
21.11.2020 12:48 9,0 C 9,4 C 8,9 C 80 % 1029,7 hPa 0,0 l/m 2 min 0 min 211 W/m 32,2 km/h (5 Bft) 96,30 %
21.11.2020 12:50 9,1 C 10,0 C 8,9 C 80 % 1029,8 hPa 0,0 l/m 2 min 0 min 196 W/m 29,0 km/h (5 Bft) 97,96 %
21.11.2020 12:52 9,1 C 9,4 C 8,9 C 80 % 1029,8 hPa 0,0 l/m 2 min 0 min 177 W/m 25,7 km/h (4 Bft) 95,92 %
21.11.2020 12:54 9,2 C 10,0 C 8,9 C 80 % 1029,8 hPa 0,0 l/m 2 min 0 min 163 W/m 19,3 km/h (3 Bft) 97,14 %
21.11.2020 12:56 9,2 C 9,4 C 8,9 C 80 % 1029,8 hPa 0,0 l/m 0 min 0 min 151 W/m 35,4 km/h (5 Bft) 97,87 %
21.11.2020 12:58 9,3 C 9,4 C 8,9 C 80 % 1029,8 hPa 0,0 l/m 0 min 0 min 152 W/m 16,1 km/h (3 Bft) 97,83 %
21.11.2020 13:00 9,3 C 9,4 C 8,9 C 80 % 1029,7 hPa 0,0 l/m 2 min 0 min 161 W/m 22,5 km/h (4 Bft) 97,87 %
21.11.2020 13:02 9,3 C 9,4 C 8,9 C 79 % 1029,7 hPa 0,0 l/m 2 min 0 min 166 W/m 32,2 km/h (5 Bft) 97,87 %
21.11.2020 13:04 9,4 C 9,4 C 8,4 C 79 % 1029,6 hPa 0,0 l/m 2 min 0 min 170 W/m 32,2 km/h (5 Bft) 98,15 %
21.11.2020 13:06 9,4 C 10,0 C 8,9 C 79 % 1029,6 hPa 0,0 l/m 2 min 0 min 195 W/m 38,6 km/h (5 Bft) 95,83 %
21.11.2020 13:08 9,4 C 10,0 C 8,9 C 79 % 1029,6 hPa 0,0 l/m 2 min 0 min 182 W/m 38,6 km/h (5 Bft) 97,92 %
21.11.2020 13:10 9,4 C 10,0 C 9,5 C 79 % 1029,7 hPa 0,0 l/m 2 min 0 min 244 W/m 35,4 km/h (5 Bft) 97,30 %
21.11.2020 13:12 9,5 C 11,1 C 10,6 C 79 % 1029,5 hPa 0,0 l/m 2 min 0 min 311 W/m 25,7 km/h (4 Bft) 97,87 %
21.11.2020 13:14 9,5 C 11,1 C 10,6 C 79 % 1029,5 hPa 0,0 l/m 2 min 0 min 271 W/m 22,5 km/h (4 Bft) 95,74 %
21.11.2020 13:16 9,6 C 10,6 C 10,0 C 79 % 1029,4 hPa 0,0 l/m 2 min 0 min 183 W/m 25,7 km/h (4 Bft) 97,87 %
21.11.2020 13:18 9,6 C 10,0 C 9,5 C 79 % 1029,4 hPa 0,0 l/m 2 min 0 min 163 W/m 22,5 km/h (4 Bft) 97,87 %
21.11.2020 13:20 9,6 C 10,0 C 9,5 C 79 % 1029,5 hPa 0,0 l/m 2 min 0 min 175 W/m 35,4 km/h (5 Bft) 98,15 %
21.11.2020 13:22 9,7 C 10,0 C 8,9 C 78 % 1029,4 hPa 0,0 l/m 2 min 0 min 162 W/m 35,4 km/h (5 Bft) 100,00 %
21.11.2020 13:24 9,7 C 10,0 C 9,5 C 78 % 1029,4 hPa 0,0 l/m 2 min 0 min 180 W/m 25,7 km/h (4 Bft) 97,30 %
21.11.2020 13:26 9,7 C 10,0 C 9,5 C 78 % 1029,4 hPa 0,0 l/m 2 min 0 min 171 W/m 32,2 km/h (5 Bft) 95,74 %
21.11.2020 13:28 9,8 C 10,0 C 9,5 C 78 % 1029,3 hPa 0,0 l/m 2 min 0 min 176 W/m 32,2 km/h (5 Bft) 97,87 %
21.11.2020 13:30 9,8 C 10,0 C 9,5 C 78 % 1029,3 hPa 0,0 l/m 2 min 0 min 190 W/m 41,8 km/h (6 Bft) 97,87 %
21.11.2020 13:32 9,8 C 10,0 C 8,9 C 78 % 1029,3 hPa 0,0 l/m 2 min 0 min 180 W/m 32,2 km/h (5 Bft) 96,36 %
21.11.2020 13:34 9,8 C 10,0 C 9,5 C 78 % 1029,3 hPa 0,0 l/m 2 min 0 min 170 W/m 29,0 km/h (5 Bft) 97,37 %
21.11.2020 13:36 9,8 C 10,0 C 9,5 C 78 % 1029,2 hPa 0,0 l/m 2 min 0 min 174 W/m 22,5 km/h (4 Bft) 98,31 %
21.11.2020 13:38 9,8 C 10,0 C 8,9 C 78 % 1029,3 hPa 0,0 l/m 2 min 0 min 167 W/m 41,8 km/h (6 Bft) 97,87 %
21.11.2020 13:40 9,9 C 10,6 C 9,5 C 78 % 1029,2 hPa 0,0 l/m 2 min 0 min 182 W/m 22,5 km/h (4 Bft) 94,74 %
21.11.2020 13:42 9,9 C 10,6 C 9,5 C 78 % 1029,2 hPa 0,0 l/m 2 min 0 min 182 W/m 25,7 km/h (4 Bft) 95,74 %
21.11.2020 13:44 9,9 C 10,6 C 9,5 C 78 % 1029,3 hPa 0,0 l/m 2 min 0 min 176 W/m 35,4 km/h (5 Bft) 97,83 %
21.11.2020 13:46 9,9 C 10,6 C 9,5 C 78 % 1029,2 hPa 0,0 l/m 2 min 0 min 237 W/m 35,4 km/h (5 Bft) 97,87 %
21.11.2020 13:48 9,9 C 10,6 C 9,5 C 78 % 1029,2 hPa 0,0 l/m 2 min 0 min 217 W/m 22,5 km/h (4 Bft) 97,87 %
21.11.2020 13:50 10,0 C 11,7 C 10,0 C 78 % 1029,2 hPa 0,0 l/m 2 min 0 min 233 W/m 22,5 km/h (4 Bft) 100,00 %
21.11.2020 13:52 10,0 C 11,7 C 10,6 C 78 % 1029,2 hPa 0,0 l/m 2 min 0 min 273 W/m 16,1 km/h (3 Bft) 97,87 %
21.11.2020 13:54 10,0 C 11,1 C 10,6 C 78 % 1029,2 hPa 0,0 l/m 2 min 0 min 228 W/m 25,7 km/h (4 Bft) 100,00 %
21.11.2020 13:56 10,1 C 11,7 C 11,1 C 78 % 1029,1 hPa 0,0 l/m 2 min 0 min 269 W/m 22,5 km/h (4 Bft) 100,00 %
21.11.2020 13:58 10,1 C 12,2 C 11,7 C 78 % 1029,1 hPa 0,0 l/m 2 min 0 min 297 W/m 19,3 km/h (3 Bft) 97,87 %
21.11.2020 14:00 10,2 C 12,2 C 11,7 C 78 % 1029,1 hPa 0,0 l/m 2 min 0 min 230 W/m 16,1 km/h (3 Bft) 97,87 %
21.11.2020 14:02 10,3 C 12,2 C 12,2 C 78 % 1029,1 hPa 0,0 l/m 2 min 0 min 335 W/m 25,7 km/h (4 Bft) 100,00 %
21.11.2020 14:04 10,4 C 12,8 C 12,2 C 78 % 1029,1 hPa 0,0 l/m 2 min 0 min 337 W/m 35,4 km/h (5 Bft) 100,00 %
21.11.2020 14:06 10,4 C 11,7 C 12,2 C 78 % 1029,0 hPa 0,0 l/m 2 min 0 min 302 W/m 38,6 km/h (5 Bft) 100,00 %
21.11.2020 14:08 10,5 C 11,7 C 11,1 C 78 % 1029,1 hPa 0,0 l/m 2 min 0 min 214 W/m 35,4 km/h (5 Bft) 100,00 %
21.11.2020 14:10 10,5 C 11,7 C 11,7 C 77 % 1029,1 hPa 0,0 l/m 2 min 0 min 224 W/m 35,4 km/h (5 Bft) 100,00 %
21.11.2020 14:12 10,5 C 11,1 C 10,6 C 77 % 1029,1 hPa 0,0 l/m 2 min 0 min 140 W/m 29,0 km/h (5 Bft) 100,00 %
21.11.2020 14:14 10,5 C 10,6 C 9,5 C 77 % 1029,2 hPa 0,0 l/m 0 min 0 min 75 W/m 29,0 km/h (5 Bft) 100,00 %
21.11.2020 14:16 10,5 C 10,0 C 8,9 C 77 % 1029,1 hPa 0,0 l/m 0 min 0 min 70 W/m 38,6 km/h (5 Bft) 100,00 %
21.11.2020 14:18 10,5 C 10,0 C 8,9 C 77 % 1029,1 hPa 0,0 l/m 0 min 0 min 78 W/m 32,2 km/h (5 Bft) 97,87 %
21.11.2020 14:20 10,4 C 9,4 C 8,4 C 77 % 1029,1 hPa 0,0 l/m 0 min 0 min 83 W/m 41,8 km/h (6 Bft) 97,83 %
21.11.2020 14:22 10,4 C 9,4 C 8,4 C 77 % 1029,1 hPa 0,0 l/m 0 min 0 min 82 W/m 38,6 km/h (5 Bft) 97,87 %
21.11.2020 14:24 10,3 C 10,0 C 8,4 C 78 % 1029,0 hPa 0,0 l/m 0 min 0 min 79 W/m 32,2 km/h (5 Bft) 97,87 %
21.11.2020 14:26 10,3 C 9,4 C 8,4 C 78 % 1029,1 hPa 0,0 l/m 0 min 0 min 67 W/m 35,4 km/h (5 Bft) 97,87 %
21.11.2020 14:28 10,3 C 9,4 C 8,4 C 78 % 1029,0 hPa 0,0 l/m 0 min 0 min 54 W/m 38,6 km/h (5 Bft) 97,87 %
21.11.2020 14:30 10,2 C 9,4 C 8,4 C 78 % 1029,0 hPa 0,0 l/m 0 min 0 min 57 W/m 29,0 km/h (5 Bft) 97,87 %
21.11.2020 14:32 10,2 C 9,4 C 8,4 C 78 % 1029,0 hPa 0,0 l/m 0 min 0 min 62 W/m 38,6 km/h (5 Bft) 94,34 %
21.11.2020 14:34 10,1 C 9,4 C 8,4 C 78 % 1029,0 hPa 0,0 l/m 0 min 0 min 64 W/m 45,1 km/h (6 Bft) 97,87 %
21.11.2020 14:36 10,1 C 9,4 C 8,4 C 78 % 1029,0 hPa 0,0 l/m 0 min 0 min 65 W/m 32,2 km/h (5 Bft) 97,87 %
21.11.2020 14:38 10,1 C 9,4 C 8,4 C 79 % 1028,9 hPa 0,0 l/m 0 min 0 min 64 W/m 41,8 km/h (6 Bft) 97,87 %
21.11.2020 14:40 10,1 C 9,4 C 8,4 C 79 % 1028,9 hPa 0,0 l/m 0 min 0 min 65 W/m 32,2 km/h (5 Bft) 97,83 %
21.11.2020 14:42 10,1 C 9,4 C 8,4 C 79 % 1028,9 hPa 0,0 l/m 0 min 0 min 64 W/m 32,2 km/h (5 Bft) 97,50 %
21.11.2020 14:44 10,1 C 9,4 C 8,4 C 79 % 1028,9 hPa 0,0 l/m 0 min 0 min 64 W/m 32,2 km/h (5 Bft) 95,74 %
21.11.2020 14:46 10,0 C 9,4 C 8,4 C 79 % 1028,9 hPa 0,0 l/m 0 min 0 min 58 W/m 45,1 km/h (6 Bft) 97,87 %
21.11.2020 14:48 10,0 C 9,4 C 8,4 C 79 % 1028,9 hPa 0,0 l/m 0 min 0 min 55 W/m 45,1 km/h (6 Bft) 93,62 %
21.11.2020 14:50 10,0 C 9,4 C 8,4 C 79 % 1028,9 hPa 0,0 l/m 0 min 0 min 62 W/m 16,1 km/h (3 Bft) 97,87 %
21.11.2020 14:52 10,0 C 9,4 C 8,4 C 79 % 1028,9 hPa 0,0 l/m 0 min 0 min 64 W/m 22,5 km/h (4 Bft) 97,87 %
21.11.2020 14:54 10,0 C 9,4 C 8,4 C 79 % 1028,8 hPa 0,0 l/m 0 min 0 min 62 W/m 38,6 km/h (5 Bft) 97,83 %
21.11.2020 14:56 10,0 C 9,4 C 8,4 C 79 % 1028,8 hPa 0,0 l/m 0 min 0 min 61 W/m 32,2 km/h (5 Bft) 97,87 %
21.11.2020 14:58 10,0 C 9,4 C 8,4 C 79 % 1028,8 hPa 0,0 l/m 0 min 0 min 53 W/m 45,1 km/h (6 Bft) 97,87 %
21.11.2020 15:00 10,0 C 9,4 C 8,4 C 79 % 1028,8 hPa 0,0 l/m 0 min 0 min 45 W/m 32,2 km/h (5 Bft) 97,87 %
21.11.2020 15:02 10,0 C 9,4 C 8,4 C 79 % 1028,8 hPa 0,0 l/m 0 min 0 min 41 W/m 35,4 km/h (5 Bft) 97,87 %
21.11.2020 15:04 10,0 C 9,4 C 8,4 C 79 % 1028,8 hPa 0,0 l/m 0 min 0 min 44 W/m 22,5 km/h (4 Bft) 97,87 %
21.11.2020 15:06 10,0 C 9,4 C 8,4 C 79 % 1028,8 hPa 0,0 l/m 0 min 0 min 42 W/m 35,4 km/h (5 Bft) 97,83 %
21.11.2020 15:08 10,0 C 9,4 C 8,4 C 79 % 1028,7 hPa 0,0 l/m 0 min 0 min 45 W/m 29,0 km/h (5 Bft) 97,87 %
21.11.2020 15:10 10,0 C 9,4 C 7,8 C 79 % 1028,7 hPa 0,0 l/m 0 min 0 min 46 W/m 45,1 km/h (6 Bft) 97,87 %
21.11.2020 15:12 10,0 C 9,4 C 7,8 C 79 % 1028,6 hPa 0,0 l/m 0 min 0 min 40 W/m 25,7 km/h (4 Bft) 100,00 %
21.11.2020 15:14 9,9 C 9,4 C 7,8 C 79 % 1028,6 hPa 0,0 l/m 0 min 0 min 29 W/m 29,0 km/h (5 Bft) 100,00 %
21.11.2020 15:16 9,9 C 9,4 C 7,8 C 79 % 1028,7 hPa 0,0 l/m 0 min 0 min 23 W/m 32,2 km/h (5 Bft) 97,87 %
21.11.2020 15:18 9,9 C 9,4 C 7,8 C 79 % 1028,6 hPa 0,0 l/m 0 min 0 min 30 W/m 32,2 km/h (5 Bft) 100,00 %
21.11.2020 15:20 9,9 C 9,4 C 7,8 C 79 % 1028,7 hPa 0,0 l/m 0 min 0 min 34 W/m 29,0 km/h (5 Bft) 100,00 %
21.11.2020 15:22 9,9 C 9,4 C 7,8 C 80 % 1028,6 hPa 0,0 l/m 0 min 0 min 32 W/m 25,7 km/h (4 Bft) 97,87 %
21.11.2020 15:24 9,9 C 9,4 C 7,8 C 80 % 1028,7 hPa 0,0 l/m 0 min 0 min 28 W/m 35,4 km/h (5 Bft) 97,87 %
21.11.2020 15:26 9,9 C 9,4 C 7,8 C 80 % 1028,6 hPa 0,0 l/m 0 min 0 min 26 W/m 32,2 km/h (5 Bft) 97,87 %
21.11.2020 15:28 9,9 C 9,4 C 7,8 C 80 % 1028,6 hPa 0,0 l/m 0 min 0 min 26 W/m 41,8 km/h (6 Bft) 97,87 %
21.11.2020 15:30 9,8 C 9,4 C 7,8 C 80 % 1028,7 hPa 0,0 l/m 0 min 0 min 26 W/m 35,4 km/h (5 Bft) 95,65 %
21.11.2020 15:32 9,8 C 9,4 C 7,8 C 80 % 1028,6 hPa 0,0 l/m 0 min 0 min 24 W/m 29,0 km/h (5 Bft) 95,74 %
21.11.2020 15:34 9,8 C 9,4 C 7,8 C 80 % 1028,8 hPa 0,0 l/m 0 min 0 min 23 W/m 19,3 km/h (3 Bft) 97,87 %
21.11.2020 15:36 9,8 C 9,4 C 7,8 C 80 % 1028,7 hPa 0,0 l/m 0 min 0 min 21 W/m 38,6 km/h (5 Bft) 95,74 %
21.11.2020 15:38 9,8 C 9,4 C 7,8 C 80 % 1028,7 hPa 0,0 l/m 0 min 0 min 19 W/m 22,5 km/h (4 Bft) 97,87 %
21.11.2020 15:40 9,8 C 9,4 C 7,8 C 80 % 1028,7 hPa 0,0 l/m 0 min 0 min 21 W/m 19,3 km/h (3 Bft) 95,74 %
21.11.2020 15:42 9,8 C 9,4 C 7,8 C 80 % 1028,7 hPa 0,0 l/m 0 min 0 min 19 W/m 32,2 km/h (5 Bft) 97,83 %
21.11.2020 15:44 9,8 C 9,4 C 7,8 C 80 % 1028,8 hPa 0,0 l/m 0 min 0 min 17 W/m 29,0 km/h (5 Bft) 97,87 %
21.11.2020 15:46 9,8 C 8,9 C 7,8 C 80 % 1028,8 hPa 0,0 l/m 0 min 0 min 14 W/m 29,0 km/h (5 Bft) 97,87 %
21.11.2020 15:48 9,8 C 8,9 C 7,8 C 80 % 1028,8 hPa 0,0 l/m 0 min 0 min 14 W/m 38,6 km/h (5 Bft) 97,87 %
21.11.2020 15:50 9,8 C 8,9 C 7,8 C 80 % 1028,7 hPa 0,0 l/m 0 min 0 min 14 W/m 25,7 km/h (4 Bft) 97,87 %
21.11.2020 15:52 9,8 C 8,9 C 7,8 C 80 % 1028,8 hPa 0,0 l/m 0 min 0 min 12 W/m 29,0 km/h (5 Bft) 97,83 %
21.11.2020 15:54 9,7 C 8,9 C 7,8 C 80 % 1028,8 hPa 0,0 l/m 0 min 0 min 12 W/m 25,7 km/h (4 Bft) 95,74 %
21.11.2020 15:56 9,7 C 8,9 C 7,8 C 80 % 1028,8 hPa 0,0 l/m 0 min 0 min 10 W/m 35,4 km/h (5 Bft) 97,87 %
21.11.2020 15:58 9,7 C 8,9 C 7,8 C 80 % 1028,7 hPa 0,0 l/m 0 min 0 min 8 W/m 22,5 km/h (4 Bft) 97,87 %
21.11.2020 16:00 9,7 C 8,9 C 7,8 C 80 % 1028,7 hPa 0,0 l/m 0 min 0 min 7 W/m 32,2 km/h (5 Bft) 97,87 %
21.11.2020 16:02 9,6 C 8,9 C 7,8 C 80 % 1028,7 hPa 0,0 l/m 0 min 0 min 7 W/m 35,4 km/h (5 Bft) 95,74 %
21.11.2020 16:04 9,6 C 8,9 C 7,8 C 80 % 1028,7 hPa 0,0 l/m 0 min 0 min 7 W/m 19,3 km/h (3 Bft) 97,83 %
21.11.2020 16:06 9,6 C 8,9 C 7,8 C 80 % 1028,7 hPa 0,0 l/m 0 min 0 min 7 W/m 22,5 km/h (4 Bft) 93,62 %
21.11.2020 16:08 9,6 C 8,9 C 7,8 C 80 % 1028,7 hPa 0,0 l/m 0 min 0 min 6 W/m 25,7 km/h (4 Bft) 97,87 %
21.11.2020 16:10 9,6 C 8,9 C 7,8 C 81 % 1028,6 hPa 0,0 l/m 0 min 0 min 5 W/m 38,6 km/h (5 Bft) 97,87 %
21.11.2020 16:12 9,6 C 8,9 C 7,8 C 81 % 1028,6 hPa 0,0 l/m 0 min 0 min 5 W/m 22,5 km/h (4 Bft) 97,87 %
21.11.2020 16:14 9,6 C 8,9 C 7,8 C 81 % 1028,6 hPa 0,0 l/m 0 min 0 min 5 W/m 12,9 km/h (3 Bft) 95,74 %
21.11.2020 16:16 9,6 C 8,9 C 7,8 C 81 % 1028,6 hPa 0,0 l/m 0 min 0 min 5 W/m 19,3 km/h (3 Bft) 95,65 %
21.11.2020 16:18 9,6 C 8,9 C 7,8 C 81 % 1028,6 hPa 0,0 l/m 0 min 0 min 5 W/m 19,3 km/h (3 Bft) 52,38 %
21.11.2020 16:20 9,6 C 8,9 C 7,8 C 81 % 1028,6 hPa 0,0 l/m 0 min 0 min 5 W/m 29,0 km/h (5 Bft) 100,00 %
21.11.2020 16:22 9,5 C 8,9 C 7,8 C 81 % 1028,6 hPa 0,0 l/m 0 min 0 min 0 W/m 25,7 km/h (4 Bft) 97,87 %
21.11.2020 16:24 9,6 C 8,9 C 7,8 C 81 % 1028,6 hPa 0,0 l/m 0 min 0 min 0 W/m 32,2 km/h (5 Bft) 97,87 %
21.11.2020 16:26 9,5 C 8,9 C 7,8 C 81 % 1028,6 hPa 0,0 l/m 0 min 0 min 0 W/m 22,5 km/h (4 Bft) 97,87 %
21.11.2020 16:28 9,5 C 8,9 C 7,8 C 81 % 1028,6 hPa 0,0 l/m 0 min 0 min 0 W/m 25,7 km/h (4 Bft) 95,65 %
21.11.2020 16:30 9,5 C 8,9 C 7,8 C 81 % 1028,7 hPa 0,0 l/m 0 min 0 min 0 W/m 35,4 km/h (5 Bft) 97,87 %
21.11.2020 16:32 9,5 C 8,9 C 7,8 C 81 % 1028,7 hPa 0,0 l/m 0 min 0 min 0 W/m 41,8 km/h (6 Bft) 97,87 %
21.11.2020 16:34 9,5 C 8,9 C 7,8 C 81 % 1028,7 hPa 0,0 l/m 0 min 0 min 0 W/m 22,5 km/h (4 Bft) 97,87 %
21.11.2020 16:36 9,5 C 8,9 C 7,8 C 81 % 1028,7 hPa 0,0 l/m 0 min 0 min 0 W/m 12,9 km/h (3 Bft) 97,87 %
21.11.2020 16:38 9,5 C 8,9 C 7,2 C 81 % 1028,7 hPa 0,0 l/m 0 min 0 min 0 W/m 19,3 km/h (3 Bft) 97,87 %
21.11.2020 16:40 9,5 C 8,9 C 7,2 C 81 % 1028,7 hPa 0,0 l/m 0 min 0 min 0 W/m 38,6 km/h (5 Bft) 95,65 %
21.11.2020 16:42 9,5 C 8,9 C 7,2 C 81 % 1028,6 hPa 0,0 l/m 0 min 0 min 0 W/m 25,7 km/h (4 Bft) 97,87 %
21.11.2020 16:44 9,5 C 8,9 C 7,8 C 81 % 1028,7 hPa 0,0 l/m 0 min 0 min 0 W/m 19,3 km/h (3 Bft) 95,74 %
21.11.2020 16:46 9,5 C 8,9 C 7,2 C 81 % 1028,8 hPa 0,0 l/m 0 min 0 min 0 W/m 22,5 km/h (4 Bft) 96,36 %
21.11.2020 16:48 9,5 C 8,9 C 7,2 C 81 % 1028,8 hPa 0,0 l/m 0 min 0 min 0 W/m 25,7 km/h (4 Bft) 97,83 %
21.11.2020 16:50 9,5 C 8,9 C 7,2 C 81 % 1028,8 hPa 0,0 l/m 0 min 0 min 0 W/m 25,7 km/h (4 Bft) 97,87 %
21.11.2020 16:52 9,5 C 8,9 C 7,2 C 81 % 1028,8 hPa 0,0 l/m 0 min 0 min 0 W/m 29,0 km/h (5 Bft) 97,87 %
21.11.2020 16:54 9,5 C 8,9 C 7,2 C 81 % 1028,7 hPa 0,0 l/m 0 min 0 min 0 W/m 32,2 km/h (5 Bft) 97,87 %
21.11.2020 16:56 9,5 C 8,9 C 7,2 C 81 % 1028,7 hPa 0,0 l/m 0 min 0 min 0 W/m 25,7 km/h (4 Bft) 95,74 %
21.11.2020 16:58 9,4 C 8,9 C 7,8 C 81 % 1028,8 hPa 0,0 l/m 0 min 0 min 0 W/m 29,0 km/h (5 Bft) 95,74 %
21.11.2020 17:00 9,4 C 8,9 C 7,2 C 81 % 1028,8 hPa 0,0 l/m 0 min 0 min 0 W/m 22,5 km/h (4 Bft) 97,83 %
21.11.2020 17:02 9,5 C 8,9 C 7,2 C 81 % 1028,8 hPa 0,0 l/m 0 min 0 min 0 W/m 12,9 km/h (3 Bft) 97,87 %
21.11.2020 17:04 9,4 C 8,9 C 7,2 C 81 % 1028,8 hPa 0,0 l/m 0 min 0 min 0 W/m 38,6 km/h (5 Bft) 91,49 %
21.11.2020 17:06 9,4 C 8,9 C 7,2 C 81 % 1028,8 hPa 0,0 l/m 0 min 0 min 0 W/m 22,5 km/h (4 Bft) 93,62 %
21.11.2020 17:08 9,4 C 8,9 C 7,2 C 81 % 1028,8 hPa 0,0 l/m 0 min 0 min 0 W/m 22,5 km/h (4 Bft) 95,74 %
21.11.2020 17:10 9,4 C 8,9 C 7,2 C 81 % 1028,7 hPa 0,0 l/m 0 min 0 min 0 W/m 22,5 km/h (4 Bft) 95,65 %
21.11.2020 17:12 9,4 C 8,9 C 7,2 C 81 % 1028,7 hPa 0,0 l/m 0 min 0 min 0 W/m 19,3 km/h (3 Bft) 97,87 %
21.11.2020 17:14 9,4 C 8,9 C 7,2 C 81 % 1028,7 hPa 0,0 l/m 0 min 0 min 0 W/m 22,5 km/h (4 Bft) 97,87 %
21.11.2020 17:16 9,4 C 8,9 C 7,2 C 81 % 1028,7 hPa 0,0 l/m 0 min 0 min 0 W/m 25,7 km/h (4 Bft) 97,87 %
21.11.2020 17:18 9,4 C 8,9 C 7,2 C 81 % 1028,8 hPa 0,0 l/m 0 min 0 min 0 W/m 16,1 km/h (3 Bft) 97,87 %
21.11.2020 17:20 9,4 C 8,9 C 7,2 C 81 % 1028,8 hPa 0,0 l/m 0 min 0 min 0 W/m 12,9 km/h (3 Bft) 97,87 %
21.11.2020 17:22 9,4 C 8,9 C 7,2 C 81 % 1028,9 hPa 0,0 l/m 0 min 0 min 0 W/m 16,1 km/h (3 Bft) 95,65 %
21.11.2020 17:24 9,4 C 8,9 C 7,2 C 81 % 1028,8 hPa 0,0 l/m 0 min 0 min 0 W/m 29,0 km/h (5 Bft) 95,74 %
21.11.2020 17:26 9,4 C 8,9 C 7,2 C 81 % 1028,7 hPa 0,0 l/m 0 min 0 min 0 W/m 22,5 km/h (4 Bft) 95,74 %
21.11.2020 17:28 9,4 C 8,9 C 7,2 C 81 % 1028,8 hPa 0,0 l/m 0 min 0 min 0 W/m 22,5 km/h (4 Bft) 97,87 %
21.11.2020 17:30 9,4 C 8,9 C 7,2 C 81 % 1028,8 hPa 0,0 l/m 0 min 0 min 0 W/m 16,1 km/h (3 Bft) 95,74 %
21.11.2020 17:32 9,4 C 8,9 C 7,2 C 81 % 1028,7 hPa 0,0 l/m 0 min 0 min 0 W/m 16,1 km/h (3 Bft) 97,87 %
21.11.2020 17:34 9,4 C 8,9 C 7,2 C 81 % 1028,8 hPa 0,0 l/m 0 min 0 min 0 W/m 35,4 km/h (5 Bft) 97,83 %
21.11.2020 17:36 9,4 C 8,9 C 7,2 C 81 % 1028,7 hPa 0,0 l/m 0 min 0 min 0 W/m 19,3 km/h (3 Bft) 95,74 %
21.11.2020 17:38 9,4 C 8,9 C 7,2 C 81 % 1028,8 hPa 0,0 l/m 0 min 0 min 0 W/m 38,6 km/h (5 Bft) 97,87 %
21.11.2020 17:40 9,4 C 8,9 C 7,2 C 81 % 1028,7 hPa 0,0 l/m 0 min 0 min 0 W/m 19,3 km/h (3 Bft) 93,62 %
21.11.2020 17:42 9,4 C 8,9 C 7,2 C 81 % 1028,7 hPa 0,0 l/m 0 min 0 min 0 W/m 19,3 km/h (3 Bft) 97,87 %
21.11.2020 17:44 9,4 C 8,9 C 7,2 C 81 % 1028,8 hPa 0,0 l/m 0 min 0 min 0 W/m 22,5 km/h (4 Bft) 97,87 %
21.11.2020 17:46 9,4 C 8,9 C 7,2 C 81 % 1028,8 hPa 0,0 l/m 0 min 0 min 0 W/m 32,2 km/h (5 Bft) 97,83 %
21.11.2020 17:48 9,4 C 8,9 C 7,2 C 81 % 1028,8 hPa 0,0 l/m 0 min 0 min 0 W/m 22,5 km/h (4 Bft) 97,83 %
21.11.2020 17:50 9,4 C 8,9 C 7,2 C 81 % 1028,9 hPa 0,0 l/m 0 min 0 min 0 W/m 25,7 km/h (4 Bft) 100,00 %
21.11.2020 17:52 9,4 C 8,9 C 7,2 C 81 % 1028,9 hPa 0,0 l/m 0 min 0 min 0 W/m 29,0 km/h (5 Bft) 95,74 %
21.11.2020 17:54 9,4 C 8,9 C 7,2 C 81 % 1028,9 hPa 0,0 l/m 0 min 0 min 0 W/m 32,2 km/h (5 Bft) 100,00 %
21.11.2020 17:56 9,4 C 8,9 C 7,2 C 81 % 1028,9 hPa 0,0 l/m 0 min 0 min 0 W/m 16,1 km/h (3 Bft) 97,87 %
21.11.2020 17:58 9,4 C 8,9 C 7,2 C 82 % 1028,8 hPa 0,0 l/m 0 min 0 min 0 W/m 9,7 km/h (2 Bft) 100,00 %
21.11.2020 18:00 9,4 C 8,9 C 7,2 C 82 % 1028,8 hPa 0,0 l/m 0 min 0 min 0 W/m 25,7 km/h (4 Bft) 100,00 %
21.11.2020 18:02 9,4 C 8,9 C 7,2 C 82 % 1028,7 hPa 0,0 l/m 0 min 0 min 0 W/m 25,7 km/h (4 Bft) 97,92 %
21.11.2020 18:04 9,4 C 8,9 C 7,2 C 82 % 1028,8 hPa 0,0 l/m 0 min 0 min 0 W/m 32,2 km/h (5 Bft) 95,74 %
21.11.2020 18:08 9,4 C 8,9 C 7,2 C 82 % 1028,6 hPa 0,0 l/m 0 min 0 min 0 W/m 22,5 km/h (4 Bft) 100,00 %
21.11.2020 18:10 9,4 C 8,9 C 7,2 C 82 % 1028,6 hPa 0,0 l/m 0 min 0 min 0 W/m 12,9 km/h (3 Bft) 97,83 %
21.11.2020 18:12 9,4 C 8,9 C 7,2 C 82 % 1028,6 hPa 0,0 l/m 0 min 0 min 0 W/m 25,7 km/h (4 Bft) 95,74 %
21.11.2020 18:14 9,4 C 8,9 C 7,2 C 82 % 1028,6 hPa 0,0 l/m 0 min 0 min 0 W/m 19,3 km/h (3 Bft) 95,74 %
21.11.2020 18:16 9,3 C 8,9 C 7,2 C 82 % 1028,6 hPa 0,0 l/m 0 min 0 min 0 W/m 29,0 km/h (5 Bft) 97,87 %
21.11.2020 18:18 9,3 C 8,9 C 7,2 C 82 % 1028,7 hPa 0,0 l/m 0 min 0 min 0 W/m 22,5 km/h (4 Bft) 97,87 %
21.11.2020 18:20 9,3 C 8,9 C 7,2 C 82 % 1028,7 hPa 0,0 l/m 0 min 0 min 0 W/m 22,5 km/h (4 Bft) 97,83 %
21.11.2020 18:22 9,3 C 8,3 C 7,2 C 82 % 1028,6 hPa 0,0 l/m 0 min 0 min 0 W/m 19,3 km/h (3 Bft) 95,74 %
21.11.2020 18:24 9,3 C 8,9 C 7,2 C 82 % 1028,7 hPa 0,0 l/m 0 min 0 min 0 W/m 29,0 km/h (5 Bft) 95,74 %
21.11.2020 18:26 9,3 C 8,3 C 7,2 C 82 % 1028,6 hPa 0,0 l/m 0 min 0 min 0 W/m 22,5 km/h (4 Bft) 95,74 %
21.11.2020 18:28 9,3 C 8,3 C 7,2 C 82 % 1028,5 hPa 0,0 l/m 0 min 0 min 0 W/m 6,4 km/h (2 Bft) 97,87 %
21.11.2020 18:30 9,3 C 8,3 C 7,2 C 82 % 1028,5 hPa 0,0 l/m 0 min 0 min 0 W/m 22,5 km/h (4 Bft) 97,87 %
21.11.2020 18:32 9,3 C 8,3 C 7,2 C 82 % 1028,6 hPa 0,0 l/m 0 min 0 min 0 W/m 32,2 km/h (5 Bft) 97,83 %
21.11.2020 18:34 9,3 C 8,3 C 7,2 C 82 % 1028,6 hPa 0,0 l/m 0 min 0 min 0 W/m 32,2 km/h (5 Bft) 97,87 %
21.11.2020 18:36 9,3 C 8,3 C 7,2 C 82 % 1028,6 hPa 0,0 l/m 0 min 0 min 0 W/m 29,0 km/h (5 Bft) 97,87 %
21.11.2020 18:38 9,3 C 8,3 C 7,2 C 82 % 1028,6 hPa 0,0 l/m 0 min 0 min 0 W/m 29,0 km/h (5 Bft) 97,87 %
21.11.2020 18:40 9,3 C 8,3 C 7,2 C 82 % 1028,6 hPa 0,0 l/m 0 min 0 min 0 W/m 35,4 km/h (5 Bft) 97,87 %
21.11.2020 18:42 9,3 C 8,3 C 7,2 C 82 % 1028,6 hPa 0,0 l/m 0 min 0 min 0 W/m 22,5 km/h (4 Bft) 95,74 %
21.11.2020 18:44 9,3 C 8,3 C 7,2 C 82 % 1028,6 hPa 0,0 l/m 0 min 0 min 0 W/m 25,7 km/h (4 Bft) 97,83 %
21.11.2020 18:46 9,3 C 8,3 C 7,2 C 82 % 1028,5 hPa 0,0 l/m 0 min 0 min 0 W/m 25,7 km/h (4 Bft) 97,87 %
21.11.2020 18:48 9,3 C 8,3 C 7,2 C 82 % 1028,5 hPa 0,0 l/m 0 min 0 min 0 W/m 22,5 km/h (4 Bft) 97,87 %
21.11.2020 18:50 9,3 C 8,3 C 7,2 C 82 % 1028,6 hPa 0,0 l/m 0 min 0 min 0 W/m 32,2 km/h (5 Bft) 97,78 %
21.11.2020 18:52 9,3 C 8,3 C 7,2 C 82 % 1028,5 hPa 0,0 l/m 0 min 0 min 0 W/m 19,3 km/h (3 Bft) 97,87 %
21.11.2020 18:54 9,2 C 8,3 C 7,2 C 82 % 1028,5 hPa 0,0 l/m 0 min 0 min 0 W/m 19,3 km/h (3 Bft) 97,87 %
21.11.2020 18:56 9,3 C 8,3 C 7,2 C 82 % 1028,5 hPa 0,0 l/m 0 min 0 min 0 W/m 22,5 km/h (4 Bft) 97,83 %
21.11.2020 18:58 9,3 C 8,3 C 7,2 C 82 % 1028,4 hPa 0,0 l/m 0 min 0 min 0 W/m 16,1 km/h (3 Bft) 100,00 %
21.11.2020 19:00 9,2 C 8,3 C 7,2 C 83 % 1028,5 hPa 0,0 l/m 0 min 0 min 0 W/m 29,0 km/h (5 Bft) 100,00 %
21.11.2020 19:02 9,2 C 8,3 C 7,2 C 83 % 1028,4 hPa 0,0 l/m 0 min 0 min 0 W/m 29,0 km/h (5 Bft) 97,87 %
21.11.2020 19:04 9,2 C 8,3 C 7,2 C 83 % 1028,4 hPa 0,0 l/m 0 min 0 min 0 W/m 22,5 km/h (4 Bft) 100,00 %
21.11.2020 19:06 9,3 C 8,3 C 7,2 C 83 % 1028,5 hPa 0,0 l/m 0 min 0 min 0 W/m 16,1 km/h (3 Bft) 100,00 %
21.11.2020 19:08 9,2 C 8,3 C 7,2 C 83 % 1028,6 hPa 0,0 l/m 0 min 0 min 0 W/m 22,5 km/h (4 Bft) 100,00 %
21.11.2020 19:10 9,2 C 8,3 C 7,2 C 83 % 1028,6 hPa 0,0 l/m 0 min 0 min 0 W/m 19,3 km/h (3 Bft) 100,00 %
21.11.2020 19:12 9,2 C 8,3 C 7,2 C 83 % 1028,6 hPa 0,0 l/m 0 min 0 min 0 W/m 19,3 km/h (3 Bft) 100,00 %
21.11.2020 19:14 9,2 C 8,3 C 7,2 C 83 % 1028,6 hPa 0,0 l/m 0 min 0 min 0 W/m 19,3 km/h (3 Bft) 100,00 %
21.11.2020 19:16 9,2 C 8,3 C 7,2 C 83 % 1028,6 hPa 0,0 l/m 0 min 0 min 0 W/m 19,3 km/h (3 Bft) 100,00 %
21.11.2020 19:18 9,2 C 8,3 C 7,2 C 83 % 1028,6 hPa 0,0 l/m 0 min 0 min 0 W/m 29,0 km/h (5 Bft) 100,00 %
21.11.2020 19:20 9,2 C 8,3 C 7,2 C 83 % 1028,6 hPa 0,0 l/m 0 min 0 min 0 W/m 35,4 km/h (5 Bft) 100,00 %
21.11.2020 19:22 9,2 C 8,3 C 7,2 C 83 % 1028,6 hPa 0,0 l/m 0 min 0 min 0 W/m 22,5 km/h (4 Bft) 100,00 %
21.11.2020 19:24 9,2 C 8,3 C 7,2 C 83 % 1028,5 hPa 0,0 l/m 0 min 0 min 0 W/m 32,2 km/h (5 Bft) 100,00 %
21.11.2020 19:26 9,2 C 8,3 C 7,2 C 83 % 1028,6 hPa 0,0 l/m 0 min 0 min 0 W/m 16,1 km/h (3 Bft) 97,87 %
21.11.2020 19:28 9,2 C 8,3 C 7,2 C 83 % 1028,6 hPa 0,0 l/m 0 min 0 min 0 W/m 19,3 km/h (3 Bft) 100,00 %
21.11.2020 19:30 9,2 C 8,3 C 7,2 C 83 % 1028,6 hPa 0,0 l/m 0 min 0 min 0 W/m 25,7 km/h (4 Bft) 100,00 %
21.11.2020 19:32 9,2 C 8,3 C 7,2 C 83 % 1028,6 hPa 0,0 l/m 0 min 0 min 0 W/m 22,5 km/h (4 Bft) 100,00 %
21.11.2020 19:34 9,2 C 8,3 C 7,2 C 83 % 1028,6 hPa 0,0 l/m 0 min 0 min 0 W/m 12,9 km/h (3 Bft) 97,87 %
21.11.2020 19:36 9,2 C 8,3 C 7,2 C 83 % 1028,6 hPa 0,0 l/m 0 min 0 min 0 W/m 12,9 km/h (3 Bft) 100,00 %
21.11.2020 19:38 9,2 C 8,3 C 7,2 C 83 % 1028,5 hPa 0,0 l/m 0 min 0 min 0 W/m 22,5 km/h (4 Bft) 100,00 %
21.11.2020 19:40 9,2 C 8,3 C 7,2 C 83 % 1028,5 hPa 0,0 l/m 0 min 0 min 0 W/m 25,7 km/h (4 Bft) 100,00 %
21.11.2020 19:42 9,1 C 8,3 C 7,2 C 83 % 1028,5 hPa 0,0 l/m 0 min 0 min 0 W/m 25,7 km/h (4 Bft) 97,83 %
21.11.2020 19:44 9,1 C 8,3 C 7,2 C 83 % 1028,5 hPa 0,0 l/m 0 min 0 min 0 W/m 22,5 km/h (4 Bft) 100,00 %
21.11.2020 19:46 9,1 C 8,3 C 7,2 C 84 % 1028,5 hPa 0,0 l/m 0 min 0 min 0 W/m 19,3 km/h (3 Bft) 100,00 %
21.11.2020 19:48 9,1 C 8,3 C 7,2 C 84 % 1028,5 hPa 0,0 l/m 0 min 0 min 0 W/m 6,4 km/h (2 Bft) 97,87 %
21.11.2020 19:50 9,1 C 8,3 C 7,2 C 84 % 1028,5 hPa 0,0 l/m 0 min 0 min 0 W/m 12,9 km/h (3 Bft) 95,74 %
21.11.2020 19:52 9,1 C 8,3 C 7,2 C 83 % 1028,5 hPa 0,0 l/m 0 min 0 min 0 W/m 16,1 km/h (3 Bft) 95,45 %
21.11.2020 19:54 9,1 C 8,3 C 7,2 C 83 % 1028,5 hPa 0,0 l/m 0 min 0 min 0 W/m 0,0 km/h (0 Bft) 93,62 %
21.11.2020 19:56 9,1 C 8,3 C 7,2 C 84 % 1028,5 hPa 0,0 l/m 0 min 0 min 0 W/m 12,9 km/h (3 Bft) 95,65 %
21.11.2020 19:58 9,1 C 8,3 C 7,2 C 84 % 1028,4 hPa 0,0 l/m 0 min 0 min 0 W/m 6,4 km/h (2 Bft) 95,74 %
21.11.2020 20:00 9,1 C 8,3 C 7,2 C 84 % 1028,4 hPa 0,0 l/m 0 min 0 min 0 W/m 19,3 km/h (3 Bft) 93,62 %
21.11.2020 20:02 9,1 C 8,3 C 7,2 C 84 % 1028,4 hPa 0,0 l/m 0 min 0 min 0 W/m 16,1 km/h (3 Bft) 93,62 %
21.11.2020 20:04 9,0 C 8,3 C 7,2 C 84 % 1028,4 hPa 0,0 l/m 0 min 0 min 0 W/m 12,9 km/h (3 Bft) 95,74 %
21.11.2020 20:06 9,0 C 8,3 C 7,2 C 84 % 1028,4 hPa 0,0 l/m 0 min 0 min 0 W/m 22,5 km/h (4 Bft) 91,30 %
21.11.2020 20:08 9,0 C 8,3 C 7,2 C 84 % 1028,4 hPa 0,0 l/m 0 min 0 min 0 W/m 16,1 km/h (3 Bft) 95,74 %
21.11.2020 20:10 9,0 C 8,3 C 7,2 C 84 % 1028,4 hPa 0,0 l/m 0 min 0 min 0 W/m 19,3 km/h (3 Bft) 95,74 %
21.11.2020 20:12 9,0 C 8,3 C 7,2 C 84 % 1028,4 hPa 0,0 l/m 0 min 0 min 0 W/m 9,7 km/h (2 Bft) 97,87 %
21.11.2020 20:14 9,0 C 8,3 C 7,2 C 84 % 1028,4 hPa 0,0 l/m 0 min 0 min 0 W/m 22,5 km/h (4 Bft) 95,74 %
21.11.2020 20:16 9,0 C 8,3 C 7,2 C 84 % 1028,4 hPa 0,0 l/m 0 min 0 min 0 W/m 22,5 km/h (4 Bft) 95,74 %
21.11.2020 20:18 9,0 C 8,3 C 7,2 C 84 % 1028,4 hPa 0,0 l/m 0 min 0 min 0 W/m 32,2 km/h (5 Bft) 93,62 %
21.11.2020 20:20 9,0 C 8,3 C 7,2 C 84 % 1028,4 hPa 0,0 l/m 0 min 0 min 0 W/m 25,7 km/h (4 Bft) 95,65 %
21.11.2020 20:22 9,0 C 8,3 C 7,2 C 84 % 1028,3 hPa 0,0 l/m 0 min 0 min 0 W/m 19,3 km/h (3 Bft) 95,74 %
21.11.2020 20:24 9,0 C 8,3 C 7,2 C 84 % 1028,3 hPa 0,0 l/m 0 min 0 min 0 W/m 16,1 km/h (3 Bft) 95,74 %
21.11.2020 20:26 8,9 C 8,3 C 7,2 C 84 % 1028,3 hPa 0,0 l/m 0 min 0 min 0 W/m 19,3 km/h (3 Bft) 95,74 %
21.11.2020 20:28 8,9 C 8,3 C 7,2 C 84 % 1028,3 hPa 0,0 l/m 0 min 0 min 0 W/m 16,1 km/h (3 Bft) 95,74 %
21.11.2020 20:30 8,9 C 8,3 C 7,2 C 84 % 1028,4 hPa 0,0 l/m 0 min 0 min 0 W/m 16,1 km/h (3 Bft) 95,65 %
21.11.2020 20:32 8,9 C 8,3 C 7,2 C 84 % 1028,3 hPa 0,0 l/m 0 min 0 min 0 W/m 29,0 km/h (5 Bft) 93,62 %
21.11.2020 20:34 8,9 C 8,3 C 7,2 C 84 % 1028,3 hPa 0,0 l/m 0 min 0 min 0 W/m 16,1 km/h (3 Bft) 93,62 %
21.11.2020 20:36 8,9 C 8,3 C 7,2 C 84 % 1028,3 hPa 0,0 l/m 0 min 0 min 0 W/m 19,3 km/h (3 Bft) 95,74 %
21.11.2020 20:38 8,9 C 8,3 C 7,2 C 84 % 1028,2 hPa 0,0 l/m 0 min 0 min 0 W/m 16,1 km/h (3 Bft) 97,87 %
21.11.2020 20:40 8,9 C 8,3 C 7,2 C 84 % 1028,2 hPa 0,0 l/m 0 min 0 min 0 W/m 19,3 km/h (3 Bft) 97,87 %
21.11.2020 20:42 8,9 C 8,3 C 7,2 C 84 % 1028,2 hPa 0,0 l/m 0 min 0 min 0 W/m 16,1 km/h (3 Bft) 97,83 %
21.11.2020 20:44 8,9 C 8,3 C 7,2 C 84 % 1028,2 hPa 0,0 l/m 0 min 0 min 0 W/m 9,7 km/h (2 Bft) 95,74 %
21.11.2020 20:46 8,9 C 8,3 C 7,2 C 84 % 1028,2 hPa 0,0 l/m 0 min 0 min 0 W/m 3,2 km/h (1 Bft) 97,87 %
21.11.2020 20:48 8,9 C 8,3 C 7,2 C 84 % 1028,3 hPa 0,0 l/m 0 min 0 min 0 W/m 16,1 km/h (3 Bft) 93,62 %
21.11.2020 20:50 8,9 C 8,3 C 7,2 C 84 % 1028,3 hPa 0,0 l/m 0 min 0 min 0 W/m 25,7 km/h (4 Bft) 97,87 %
21.11.2020 20:52 8,9 C 8,3 C 7,2 C 84 % 1028,3 hPa 0,0 l/m 0 min 0 min 0 W/m 19,3 km/h (3 Bft) 97,87 %
21.11.2020 20:54 8,9 C 8,3 C 7,2 C 84 % 1028,3 hPa 0,0 l/m 0 min 0 min 0 W/m 6,4 km/h (2 Bft) 100,00 %
21.11.2020 20:56 8,9 C 8,3 C 7,2 C 84 % 1028,3 hPa 0,0 l/m 0 min 0 min 0 W/m 12,9 km/h (3 Bft) 100,00 %
21.11.2020 20:58 8,9 C 8,3 C 7,2 C 84 % 1028,3 hPa 0,0 l/m 0 min 0 min 0 W/m 12,9 km/h (3 Bft) 97,87 %
21.11.2020 21:00 8,9 C 8,3 C 7,2 C 84 % 1028,3 hPa 0,0 l/m 0 min 0 min 0 W/m 16,1 km/h (3 Bft) 95,65 %
21.11.2020 21:02 8,9 C 8,3 C 7,2 C 84 % 1028,3 hPa 0,0 l/m 0 min 0 min 0 W/m 16,1 km/h (3 Bft) 97,87 %
21.11.2020 21:04 8,9 C 8,3 C 7,2 C 84 % 1028,2 hPa 0,0 l/m 0 min 0 min 0 W/m 22,5 km/h (4 Bft) 97,87 %
21.11.2020 21:06 8,9 C 8,3 C 7,2 C 85 % 1028,2 hPa 0,0 l/m 0 min 0 min 0 W/m 6,4 km/h (2 Bft) 95,74 %
21.11.2020 21:08 8,9 C 8,3 C 7,2 C 85 % 1028,2 hPa 0,0 l/m 0 min 0 min 0 W/m 19,3 km/h (3 Bft) 93,62 %
21.11.2020 21:10 8,9 C 8,3 C 7,2 C 84 % 1028,1 hPa 0,0 l/m 0 min 0 min 0 W/m 29,0 km/h (5 Bft) 95,65 %
21.11.2020 21:12 8,9 C 8,3 C 7,2 C 84 % 1028,2 hPa 0,0 l/m 0 min 0 min 0 W/m 19,3 km/h (3 Bft) 95,74 %
21.11.2020 21:14 8,9 C 8,3 C 7,2 C 84 % 1028,2 hPa 0,0 l/m 0 min 0 min 0 W/m 25,7 km/h (4 Bft) 97,87 %
21.11.2020 21:16 8,9 C 8,3 C 7,2 C 84 % 1028,2 hPa 0,0 l/m 0 min 0 min 0 W/m 16,1 km/h (3 Bft) 95,74 %
21.11.2020 21:18 8,9 C 8,3 C 7,2 C 85 % 1028,1 hPa 0,0 l/m 0 min 0 min 0 W/m 12,9 km/h (3 Bft) 97,87 %
21.11.2020 21:20 8,9 C 8,3 C 7,2 C 85 % 1028,1 hPa 0,0 l/m 0 min 0 min 0 W/m 19,3 km/h (3 Bft) 97,87 %
21.11.2020 21:22 8,9 C 8,3 C 7,2 C 85 % 1028,2 hPa 0,0 l/m 0 min 0 min 0 W/m 22,5 km/h (4 Bft) 97,83 %
21.11.2020 21:24 8,9 C 8,3 C 7,2 C 85 % 1028,1 hPa 0,0 l/m 0 min 0 min 0 W/m 16,1 km/h (3 Bft) 97,87 %
21.11.2020 21:26 8,9 C 8,3 C 7,2 C 85 % 1028,1 hPa 0,0 l/m 0 min 0 min 0 W/m 25,7 km/h (4 Bft) 97,87 %
21.11.2020 21:28 8,9 C 8,3 C 7,2 C 85 % 1028,1 hPa 0,0 l/m 0 min 0 min 0 W/m 22,5 km/h (4 Bft) 100,00 %
21.11.2020 21:30 8,9 C 8,3 C 7,2 C 85 % 1028,0 hPa 0,0 l/m 0 min 0 min 0 W/m 19,3 km/h (3 Bft) 97,87 %
21.11.2020 21:32 8,9 C 8,3 C 7,2 C 85 % 1028,0 hPa 0,0 l/m 0 min 0 min 0 W/m 22,5 km/h (4 Bft) 95,74 %
21.11.2020 21:34 8,9 C 8,3 C 7,2 C 85 % 1028,1 hPa 0,0 l/m 0 min 0 min 0 W/m 32,2 km/h (5 Bft) 97,83 %
21.11.2020 21:36 8,9 C 8,3 C 7,2 C 85 % 1028,1 hPa 0,0 l/m 0 min 0 min 0 W/m 29,0 km/h (5 Bft) 95,74 %
21.11.2020 21:38 8,9 C 8,3 C 7,2 C 85 % 1028,1 hPa 0,0 l/m 0 min 0 min 0 W/m 29,0 km/h (5 Bft) 97,87 %
21.11.2020 21:40 8,9 C 8,3 C 7,2 C 85 % 1028,1 hPa 0,0 l/m 0 min 0 min 0 W/m 16,1 km/h (3 Bft) 97,87 %
21.11.2020 21:42 8,8 C 8,3 C 7,2 C 85 % 1028,1 hPa 0,0 l/m 0 min 0 min 0 W/m 6,4 km/h (2 Bft) 97,87 %
21.11.2020 21:44 8,8 C 8,3 C 7,2 C 85 % 1028,0 hPa 0,0 l/m 0 min 0 min 0 W/m 22,5 km/h (4 Bft) 97,87 %
21.11.2020 21:46 8,9 C 8,3 C 7,2 C 85 % 1028,1 hPa 0,0 l/m 0 min 0 min 0 W/m 29,0 km/h (5 Bft) 97,83 %
21.11.2020 21:48 8,9 C 8,3 C 7,2 C 85 % 1028,1 hPa 0,0 l/m 0 min 0 min 0 W/m 19,3 km/h (3 Bft) 100,00 %
21.11.2020 21:50 8,9 C 8,3 C 7,2 C 85 % 1028,1 hPa 0,0 l/m 0 min 0 min 0 W/m 22,5 km/h (4 Bft) 100,00 %
21.11.2020 21:52 8,9 C 8,3 C 7,2 C 85 % 1028,2 hPa 0,0 l/m 0 min 0 min 0 W/m 22,5 km/h (4 Bft) 100,00 %
21.11.2020 21:54 8,9 C 8,3 C 7,2 C 85 % 1028,1 hPa 0,0 l/m 0 min 0 min 0 W/m 25,7 km/h (4 Bft) 100,00 %
21.11.2020 21:56 8,9 C 8,3 C 7,2 C 85 % 1028,1 hPa 0,0 l/m 0 min 0 min 0 W/m 16,1 km/h (3 Bft) 100,00 %
21.11.2020 21:58 8,9 C 8,3 C 7,2 C 85 % 1028,1 hPa 0,0 l/m 0 min 0 min 0 W/m 29,0 km/h (5 Bft) 100,00 %
21.11.2020 22:00 8,9 C 8,3 C 7,2 C 85 % 1028,0 hPa 0,0 l/m 0 min 0 min 0 W/m 16,1 km/h (3 Bft) 100,00 %
21.11.2020 22:02 8,9 C 8,3 C 7,2 C 85 % 1028,0 hPa 0,0 l/m 0 min 0 min 0 W/m 35,4 km/h (5 Bft) 100,00 %
21.11.2020 22:04 8,9 C 8,3 C 7,2 C 85 % 1027,9 hPa 0,0 l/m 0 min 0 min 0 W/m 12,9 km/h (3 Bft) 100,00 %
21.11.2020 22:06 8,9 C 8,3 C 7,2 C 85 % 1028,0 hPa 0,0 l/m 0 min 0 min 0 W/m 19,3 km/h (3 Bft) 100,00 %
21.11.2020 22:08 8,9 C 8,3 C 7,2 C 85 % 1028,0 hPa 0,0 l/m 0 min 0 min 0 W/m 19,3 km/h (3 Bft) 100,00 %
21.11.2020 22:10 8,9 C 8,3 C 7,2 C 85 % 1028,0 hPa 0,0 l/m 0 min 0 min 0 W/m 35,4 km/h (5 Bft) 97,87 %
21.11.2020 22:12 8,9 C 8,3 C 7,2 C 85 % 1028,0 hPa 0,0 l/m 0 min 0 min 0 W/m 29,0 km/h (5 Bft) 100,00 %
21.11.2020 22:14 8,9 C 8,3 C 7,2 C 85 % 1028,0 hPa 0,0 l/m 0 min 0 min 0 W/m 29,0 km/h (5 Bft) 100,00 %
21.11.2020 22:16 8,9 C 8,3 C 7,2 C 85 % 1028,0 hPa 0,0 l/m 0 min 0 min 0 W/m 25,7 km/h (4 Bft) 100,00 %
21.11.2020 22:18 8,9 C 8,3 C 7,2 C 85 % 1028,0 hPa 0,0 l/m 0 min 0 min 0 W/m 25,7 km/h (4 Bft) 100,00 %
21.11.2020 22:20 8,9 C 8,3 C 7,2 C 85 % 1027,8 hPa 0,0 l/m 0 min 0 min 0 W/m 25,7 km/h (4 Bft) 100,00 %
21.11.2020 22:22 8,9 C 8,3 C 7,2 C 86 % 1027,8 hPa 0,0 l/m 0 min 0 min 0 W/m 22,5 km/h (4 Bft) 97,87 %
21.11.2020 22:24 8,9 C 8,3 C 7,2 C 86 % 1027,8 hPa 0,0 l/m 0 min 0 min 0 W/m 19,3 km/h (3 Bft) 100,00 %
21.11.2020 22:26 8,9 C 8,3 C 7,2 C 86 % 1027,7 hPa 0,0 l/m 0 min 0 min 0 W/m 35,4 km/h (5 Bft) 97,87 %
21.11.2020 22:28 8,9 C 8,3 C 7,2 C 86 % 1027,7 hPa 0,0 l/m 0 min 0 min 0 W/m 12,9 km/h (3 Bft) 97,83 %
21.11.2020 22:30 8,9 C 8,3 C 7,2 C 86 % 1027,7 hPa 0,0 l/m 0 min 0 min 0 W/m 22,5 km/h (4 Bft) 100,00 %
21.11.2020 22:32 8,9 C 8,3 C 7,2 C 86 % 1027,7 hPa 0,0 l/m 0 min 0 min 0 W/m 35,4 km/h (5 Bft) 100,00 %
21.11.2020 22:34 8,9 C 8,3 C 7,2 C 86 % 1027,7 hPa 0,0 l/m 0 min 0 min 0 W/m 16,1 km/h (3 Bft) 100,00 %
21.11.2020 22:36 8,9 C 8,3 C 7,2 C 86 % 1027,7 hPa 0,0 l/m 0 min 0 min 0 W/m 22,5 km/h (4 Bft) 95,74 %
21.11.2020 22:38 8,9 C 8,3 C 7,2 C 86 % 1027,7 hPa 0,0 l/m 0 min 0 min 0 W/m 25,7 km/h (4 Bft) 97,87 %
21.11.2020 22:40 8,9 C 8,3 C 7,2 C 86 % 1027,7 hPa 0,0 l/m 0 min 0 min 0 W/m 19,3 km/h (3 Bft) 95,65 %
21.11.2020 22:42 8,9 C 8,3 C 7,2 C 86 % 1027,6 hPa 0,0 l/m 0 min 0 min 0 W/m 19,3 km/h (3 Bft) 97,87 %
21.11.2020 22:44 8,9 C 8,3 C 7,2 C 86 % 1027,6 hPa 0,0 l/m 0 min 0 min 0 W/m 19,3 km/h (3 Bft) 97,87 %
21.11.2020 22:46 8,9 C 8,3 C 7,2 C 86 % 1027,6 hPa 0,0 l/m 0 min 0 min 0 W/m 19,3 km/h (3 Bft) 95,74 %
21.11.2020 22:48 8,9 C 8,3 C 7,2 C 86 % 1027,5 hPa 0,0 l/m 0 min 0 min 0 W/m 22,5 km/h (4 Bft) 97,87 %
21.11.2020 22:50 8,9 C 8,3 C 7,2 C 86 % 1027,5 hPa 0,0 l/m 0 min 0 min 0 W/m 19,3 km/h (3 Bft) 97,87 %
21.11.2020 22:52 8,9 C 8,3 C 7,2 C 86 % 1027,5 hPa 0,0 l/m 0 min 0 min 0 W/m 19,3 km/h (3 Bft) 95,65 %
21.11.2020 22:54 8,9 C 8,3 C 7,2 C 86 % 1027,5 hPa 0,0 l/m 0 min 0 min 0 W/m 19,3 km/h (3 Bft) 97,87 %
21.11.2020 22:56 8,9 C 8,3 C 7,2 C 86 % 1027,5 hPa 0,0 l/m 0 min 0 min 0 W/m 38,6 km/h (5 Bft) 97,87 %
21.11.2020 22:58 8,9 C 8,3 C 7,2 C 86 % 1027,5 hPa 0,0 l/m 0 min 0 min 0 W/m 22,5 km/h (4 Bft) 97,83 %
21.11.2020 23:00 8,8 C 8,3 C 7,2 C 86 % 1027,5 hPa 0,0 l/m 0 min 0 min 0 W/m 29,0 km/h (5 Bft) 97,83 %
21.11.2020 23:02 8,9 C 8,3 C 7,2 C 86 % 1027,5 hPa 0,0 l/m 0 min 0 min 0 W/m 22,5 km/h (4 Bft) 97,92 %
21.11.2020 23:04 8,9 C 8,3 C 7,2 C 86 % 1027,4 hPa 0,0 l/m 0 min 0 min 0 W/m 35,4 km/h (5 Bft) 97,87 %
21.11.2020 23:06 8,9 C 8,3 C 7,2 C 86 % 1027,4 hPa 0,0 l/m 0 min 0 min 0 W/m 16,1 km/h (3 Bft) 97,87 %
21.11.2020 23:08 8,9 C 8,3 C 7,2 C 86 % 1027,4 hPa 0,0 l/m 0 min 0 min 0 W/m 19,3 km/h (3 Bft) 95,74 %
21.11.2020 23:10 8,9 C 8,3 C 7,2 C 86 % 1027,4 hPa 0,0 l/m 0 min 0 min 0 W/m 0,0 km/h (0 Bft) 97,87 %
21.11.2020 23:12 8,9 C 8,3 C 7,2 C 86 % 1027,4 hPa 0,0 l/m 0 min 0 min 0 W/m 25,7 km/h (4 Bft) 97,83 %
21.11.2020 23:14 8,9 C 8,3 C 7,2 C 86 % 1027,4 hPa 0,0 l/m 0 min 0 min 0 W/m 19,3 km/h (3 Bft) 95,74 %
21.11.2020 23:16 8,9 C 8,3 C 7,2 C 86 % 1027,3 hPa 0,0 l/m 0 min 0 min 0 W/m 3,2 km/h (1 Bft) 97,87 %
21.11.2020 23:18 8,9 C 8,3 C 7,2 C 86 % 1027,3 hPa 0,0 l/m 0 min 0 min 0 W/m 19,3 km/h (3 Bft) 97,87 %
21.11.2020 23:20 8,9 C 8,3 C 7,2 C 86 % 1027,3 hPa 0,0 l/m 0 min 0 min 0 W/m 9,7 km/h (2 Bft) 97,87 %
21.11.2020 23:22 8,9 C 8,3 C 7,2 C 86 % 1027,3 hPa 0,0 l/m 0 min 0 min 0 W/m 12,9 km/h (3 Bft) 97,87 %
21.11.2020 23:24 8,9 C 8,3 C 7,2 C 86 % 1027,3 hPa 0,0 l/m 0 min 0 min 0 W/m 16,1 km/h (3 Bft) 100,00 %
21.11.2020 23:26 8,9 C 8,3 C 7,2 C 86 % 1027,3 hPa 0,0 l/m 0 min 0 min 0 W/m 22,5 km/h (4 Bft) 100,00 %
21.11.2020 23:28 8,9 C 8,3 C 7,2 C 86 % 1027,3 hPa 0,0 l/m 0 min 0 min 0 W/m 12,9 km/h (3 Bft) 97,87 %
21.11.2020 23:30 8,9 C 8,3 C 7,2 C 86 % 1027,4 hPa 0,0 l/m 0 min 0 min 0 W/m 12,9 km/h (3 Bft) 97,87 %
21.11.2020 23:32 8,9 C 8,3 C 7,2 C 86 % 1027,3 hPa 0,0 l/m 0 min 0 min 0 W/m 6,4 km/h (2 Bft) 97,87 %
21.11.2020 23:34 8,9 C 8,3 C 7,2 C 86 % 1027,2 hPa 0,0 l/m 0 min 0 min 0 W/m 22,5 km/h (4 Bft) 95,74 %
21.11.2020 23:36 8,9 C 8,3 C 7,2 C 86 % 1027,3 hPa 0,0 l/m 0 min 0 min 0 W/m 19,3 km/h (3 Bft) 97,83 %
21.11.2020 23:38 8,9 C 8,3 C 7,2 C 86 % 1027,4 hPa 0,0 l/m 0 min 0 min 0 W/m 22,5 km/h (4 Bft) 97,87 %
21.11.2020 23:40 8,9 C 8,3 C 7,2 C 86 % 1027,4 hPa 0,0 l/m 0 min 0 min 0 W/m 19,3 km/h (3 Bft) 97,87 %
21.11.2020 23:42 8,9 C 8,3 C 7,2 C 86 % 1027,3 hPa 0,0 l/m 0 min 0 min 0 W/m 12,9 km/h (3 Bft) 97,87 %
21.11.2020 23:44 8,9 C 8,3 C 7,2 C 86 % 1027,2 hPa 0,0 l/m 0 min 0 min 0 W/m 3,2 km/h (1 Bft) 95,74 %
21.11.2020 23:46 8,9 C 8,3 C 7,2 C 86 % 1027,2 hPa 0,0 l/m 0 min 0 min 0 W/m 25,7 km/h (4 Bft) 95,65 %
21.11.2020 23:48 8,9 C 8,3 C 7,2 C 86 % 1027,2 hPa 0,0 l/m 0 min 0 min 0 W/m 19,3 km/h (3 Bft) 95,74 %
21.11.2020 23:50 8,9 C 8,3 C 7,2 C 86 % 1027,2 hPa 0,0 l/m 0 min 0 min 0 W/m 22,5 km/h (4 Bft) 95,74 %
21.11.2020 23:52 8,9 C 8,3 C 7,2 C 86 % 1027,2 hPa 0,0 l/m 0 min 0 min 0 W/m 6,4 km/h (2 Bft) 95,74 %
21.11.2020 23:54 8,9 C 8,3 C 7,2 C 86 % 1027,2 hPa 0,0 l/m 0 min 0 min 0 W/m 35,4 km/h (5 Bft) 95,74 %
21.11.2020 23:56 8,9 C 8,3 C 7,2 C 86 % 1027,2 hPa 0,0 l/m 0 min 0 min 0 W/m 16,1 km/h (3 Bft) 95,74 %
21.11.2020 23:58 8,9 C 8,3 C 7,2 C 86 % 1027,2 hPa 0,0 l/m 0 min 0 min 0 W/m 29,0 km/h (5 Bft) 95,65 %
_ Min-Zeit 03:12 01:26 00:26 14:10 23:34 - - - - 00:34 16:18
Minimum _ 1,8 C 1,1 C 0,6 C 77 % 1027,2 hPa - - - - 0,0 km/h (0 Bft) 52,38 %
_ Max-Zeit 14:08 14:04 14:02 04:34 00:00 00:00 12:44 00:00 14:04 14:34 00:14
Maximum _ 10,5 C 12,8 C 12,2 C 92 % 1034,9 hPa 0,0 l/m 2 min 0 min 337 W/m 45,1 km/h
S-SO (6 Bft)
100,00 %
Durchschnitt _ 6,3 C 5,9 C 5,0 C 86 % 1030,5 hPa #0,0 l/m #1:26 h #0 min. 79 W/m 18,0 km/h (3 Bft) 97,39 %
© 2020 W. Hausmann